GFSMA_prec_radar_000.txt.gz
Reflectivity
-20 -20 -20 -20 -20 -20 -20 -20 -20 -20 -20 -20 -20 -20 -20 -20 -20 -20 -20 -20 -20 -20 -20 -20 -20 -20 -20 -20 -20 -20 -20 -20 -20 -20 -20 -20 -20 -20 -16 -20 -20 -20 20
-20 -20 -20 -20 -20 -20 -20 -20 -20 -20 -20 -20 -20 -20 -20 -20 -20 -20 -20 -20 -20 -20 -20 -20 -20 -20 -20 -20 -20 -20 -20 -20 -20 -20 -20 -20 -20 -20 -20 -20 -20 0 1
-20 -20 -20 -20 -20 -20 -20 -20 -20 -20 -20 -20 -20 -20 -20 -20 -20 -20 -20 -20 -20 -20 -20 -20 -20 -20 -20 -20 -20 -20 -19 -20 -20 -20 -20 -20 -20 -20 -20 -20 -20 -20 -7
-20 -20 -20 -20 -20 -20 -20 -20 -20 -20 -20 -20 -20 -20 -20 -20 -20 -20 -20 -20 -20 -20 -20 -20 -20 -20 -20 -20 -20 -20 -20 -20 -20 -20 -18 -20 -20 -20 -20 -20 -20 -20 -20
-20 -20 -20 -20 -20 -20 -20 -20 -20 -20 -20 -20 -20 -20 -20 -20 -20 -20 -20 -20 -20 -20 -20 -20 -20 -20 -20 -20 -20 -20 -20 -20 -20 -20 -20 -20 -20 -20 -20 -20 -20 -20 -20
-20 -20 -20 -20 -20 -20 -20 -20 -20 -20 -20 -20 -20 -20 -20 -20 -20 -20 -20 -20 -20 -20 -20 -20 -20 -20 -20 -20 -20 -20 -20 -20 -20 -20 -5 -19 -20 -20 -20 -20 -20 -20 -20
-20 -20 -20 -20 -20 -20 -20 -20 -20 -20 -20 -20 -20 -20 -20 -20 -20 -20 -20 -20 -20 -20 -20 -20 -20 -20 -20 -20 -20 -20 -20 -20 -20 -20 -20 -19 -20 -20 -20 -20 -20 -20 -20
-20 -20 -20 -20 -20 -20 -20 -20 -20 -20 -20 -20 -20 -20 -20 -20 -20 -20 -20 -20 -20 -20 -20 -20 -20 -20 -20 -20 -20 -20 -20 -20 -20 -20 -20 -20 -11 -1 11 -20 -20 -20 -20
-20 -20 -20 -20 -20 -20 -20 -20 -20 -20 -20 -20 -20 -20 -20 -20 -20 -20 -20 -20 -20 -20 -20 -20 -20 -20 -20 -20 -20 -20 -20 -20 -20 -20 -20 -20 -20 -20 -18 -20 -20 -20 -20
-20 -20 -20 -20 -20 -20 -20 -20 -20 -20 -20 -20 -20 -20 -20 -20 -20 -20 -20 -20 -20 -20 -20 -20 -20 -20 -20 -20 -20 -20 -20 -20 -20 -20 -20 -20 -20 -16 3 -20 -20 -20 -20
-20 -20 -20 -20 -20 -20 -20 -20 -20 -20 -20 -20 -20 -20 -20 -20 -20 -20 -20 -20 -20 -20 -20 -20 -20 -20 -20 -20 -20 -20 -20 -20 -20 -20 -20 -20 -20 -20 -20 -20 -20 -20 -20
-20 -20 -20 -20 -20 -20 -20 -20 -20 -20 -20 -20 -20 -20 -20 -20 -20 -20 -20 -20 -20 -20 -20 -20 -20 -20 -20 -20 -20 -20 -20 -20 -20 -20 -20 -19 -20 -20 -20 -20 -20 -20 -20
-20 -20 -20 -20 -20 -20 -20 -20 -5 14 -18 -20 -20 -20 -20 -20 -20 -20 -20 -20 -20 -20 -20 -20 -20 -20 -20 -20 -20 -20 -20 -20 -20 -20 -3 -7 -20 -20 -20 -20 -20 -20 -20
-20 -20 -20 -20 -20 -20 -19 -20 5 -19 -19 -20 -20 -20 -20 -20 -20 -20 -20 -20 -20 -20 -20 -20 -20 -20 -20 -20 -20 -20 -20 -20 -20 -20 -20 -15 -16 -20 -20 14 -11 -19 -20
-20 -20 -20 -20 6 -20 -20 -9 -10 -20 -20 -20 -20 -20 -20 -20 -20 -20 -20 -20 -20 -20 -20 -20 -20 -20 -20 -20 -20 -20 -20 -20 -20 -20 -20 -19 17 8 -16 4 -10 -20 -20
-20 -20 -20 -20 8 -6 -20 -20 -16 -20 -20 -20 -20 -20 -20 -20 -20 -20 -20 -20 -20 -20 -20 -20 -20 -20 -20 -20 -19 -0 -20 -20 -20 -20 -20 -20 -6 -17 7 -2 -7 -20 -20
-20 -20 -20 -18 -20 -20 -20 -20 -20 -20 -20 -20 -20 -20 -20 -20 -20 -20 -20 -20 -20 -20 -20 -20 -20 -20 -20 -20 -20 8 -10 -20 -20 -20 -20 -20 -20 -18 4 10 -19 -20 -20
-20 -20 -20 -20 -20 -20 -20 -20 -20 -20 -20 -20 -20 -20 -20 -20 -20 -20 -20 -20 -20 -20 -20 -20 -20 -20 -20 -20 -20 -20 12 -17 -20 -20 -20 -20 -20 -20 -7 -12 27 2 -4
-20 -20 -20 -20 -20 -20 -20 -20 -20 -20 -20 -20 -20 -20 -20 -20 -20 -20 -20 -20 -20 -18 -5 15 -12 -20 -20 -20 -20 -20 -20 12 8 -20 -20 -20 -20 -20 -20 13 -20 -20 4
-20 -20 -20 -20 -20 -20 -20 -20 -20 -20 -20 -20 -20 -20 -20 -20 -20 -20 -20 -20 -8 -20 -20 5 -9 -20 -20 -20 -20 -20 -20 -20 -1 -1 -20 -20 -20 -20 -20 27 11 -19 -19
-20 -20 -20 -20 -20 -20 -20 -20 -20 -20 -20 -20 -20 -20 -20 -20 8 9 3 -17 -19 4 3 14 4 1 -12 1 -20 -20 -20 -20 -20 -20 -20 -20 -20 -20 -20 -3 34 28 11
-20 -20 -20 -20 -20 -20 -20 -20 -20 -20 -20 -20 -20 -20 -20 -20 -20 -1 -20 -1 5 5 3 13 -20 7 -20 2 11 -20 -20 -20 -20 -20 -20 -20 -20 -20 -20 -2 18 18 1
-20 -20 -19 -15 -20 -20 -20 -20 -20 -20 -20 -20 -20 -20 -20 -20 -20 -20 -20 -10 -7 4 7 16 9 -5 16 -20 -2 -19 -20 -20 -20 -20 -20 -20 -20 -20 -20 -20 1 -15 -20
-20 -20 -20 -20 -20 -20 -20 -20 -20 -20 -20 -20 -20 -20 -20 -20 -20 -1 -11 12 -10 -20 -20 -20 -9 -16 -11 -20 -20 -20 -20 -20 -20 -20 -20 -20 -20 -20 -20 -20 -20 -20 -20
-20 -20 -20 -20 -20 -20 -20 -20 -20 -20 -20 -20 -20 -20 -15 -20 -20 9 3 -16 -20 -20 -17 -13 -0 -20 -20 -20 8 -9 -20 -5 -20 -20 -20 -20 -20 -20 -20 -20 -20 -20 -20
-20 -20 -20 -20 -20 -20 -20 -20 -20 -20 -20 -20 -20 -20 -20 -2 3 8 10 -19 -20 4 -19 -18 -20 -20 -20 -20 -20 -20 -18 6 6 -18 -20 -20 -20 -20 -20 -20 -20 -20 -20

GFSMA_prec_radar_003.txt.gz
Reflectivity
-19 -20 -20 -20 -20 -20 -20 -20 -20 -20 -20 -20 -20 -20 -20 -20 -20 -20 -20 -20 -20 -20 -20 -20 -20 -20 -20 -20 -20 -20 -20 -20 -20 -20 -20 -20 -20 -20 -20 -20 -20 7 28
26 -20 -20 -20 -20 -20 -20 -20 -20 -20 -20 -20 -20 -20 -20 -20 -20 -20 -20 -20 -20 -20 -20 -20 -20 -20 -20 -20 -20 -20 -20 -20 -20 -20 -20 -20 -20 -20 -20 -20 -20 -20 -3
19 -20 -20 -20 -20 -20 -20 -20 -20 -20 -20 -20 -20 -20 -20 -20 -20 -20 -20 -20 -20 -20 -20 -20 -20 -20 -20 -20 -20 -20 -20 -20 -20 -20 -20 -20 -20 -20 -20 -20 -20 -20 -20
-20 -18 -20 -20 -20 -20 -20 -20 -20 -20 -20 -20 -20 -20 -20 -20 -20 -20 -20 -20 -20 -20 -20 -20 -20 -20 -20 -20 -20 -20 -20 -20 -20 -20 -20 -20 -20 -20 -20 -20 -20 -20 -20
1 -14 -20 -20 -20 -20 -20 -20 -20 -20 -20 -20 -20 -20 -20 -20 -20 -20 -20 -20 -20 -20 -20 -20 -20 -20 -20 -20 -20 -20 -20 -20 -20 -20 -20 -20 -20 -20 -20 -20 -20 -20 -20
-20 -20 -20 -20 -20 -20 -20 -20 -20 -20 -20 -20 -20 -20 -20 -20 -20 -20 -20 -20 -20 -20 -20 -20 -20 -20 -20 -20 -20 -20 -20 -20 -20 -20 -20 -2 -20 -20 -20 -20 -20 -20 -20
-20 -20 -20 -20 -20 -20 -20 -20 -20 -20 -20 -20 -20 -20 -20 -20 -20 -20 -20 -20 -20 -20 -20 -20 -20 -20 -20 -20 -20 -20 -20 -20 -20 -20 -20 -20 -20 -20 -20 -20 -20 -20 -20
-20 -20 -20 -20 -20 -20 -20 -20 -20 -20 -20 -20 -20 -20 -20 -20 -20 -20 -20 -20 -20 -20 -20 -20 -20 -20 -20 -20 -20 -20 -20 -20 -20 -20 -20 -20 -20 -20 -19 -20 -20 -20 -20
-20 -20 -20 -20 -20 -20 -20 -20 -20 -20 -20 -20 -20 -20 -20 -20 -20 -20 -20 -20 -20 -20 -20 -20 -20 -20 -20 -20 -20 -20 -20 -20 -20 -20 -20 -20 -20 -20 8 21 7 -20 -20
-20 -20 -20 -20 -20 -20 -20 -20 -20 -20 -20 -20 -20 -20 -20 -20 -20 -20 -20 -20 -20 -20 -20 -20 -20 -20 -20 -20 -20 -20 -20 -20 -20 -20 -20 -20 -20 -20 -20 13 4 -20 -20
-20 -20 -20 -20 -20 -20 -20 -20 -20 -20 -20 -20 -20 -20 -20 -20 -20 -20 -20 -20 -20 -20 -20 -20 -20 -20 -20 -20 -20 -20 -20 -20 -20 -20 -9 0 -20 -20 -20 -20 21 -20 -20
-20 -20 -20 -20 -20 -20 -20 -20 -20 -20 -20 -20 -20 -20 -20 -20 -20 -20 -20 -20 -20 -20 -20 -20 -20 -20 -20 -20 -20 -20 -20 -20 -20 -20 -4 8 2 5 -10 -20 0 -20 -20
-20 -20 -20 -20 -20 -20 -20 -20 -4 -20 -20 -20 -20 -20 -20 -20 -20 -20 -20 -20 -20 -20 -20 -20 -20 -20 -20 -20 -20 -20 -20 -20 -20 -20 1 5 12 14 8 -1 -0 25 -20
-20 -20 -20 -20 -20 -20 -20 -19 -20 -20 -20 -20 -20 -20 -20 -20 -20 -20 -20 -20 -20 -20 -20 -20 -20 -20 -20 -20 -20 -20 -12 -20 -20 -20 -20 -20 -20 10 17 6 -12 2 9
-20 -20 -20 -20 -20 -15 -18 -10 -20 -20 -20 -20 -20 -20 -20 -20 -20 -20 -20 -20 -20 -6 -20 -20 -20 -20 -20 -20 -20 -20 20 -20 -9 -1 12 8 4 -18 12 -4 13 -15 2
-20 -20 -20 -20 -3 -20 -20 -20 -20 -20 -20 -20 -20 -20 -20 -20 -20 -20 -20 -20 -20 -20 -20 -20 -20 -20 -20 -20 -20 -20 12 -20 -17 -3 19 -20 -20 -20 -0 14 11 8 13
-20 -20 -20 -18 -20 -20 -20 -20 -20 -20 -20 -20 -20 -20 -20 -20 -20 -20 -20 -20 -20 -20 -20 -20 -20 -20 -20 -20 -20 -20 13 -20 -20 -20 -20 -20 -20 -20 -20 -18 11 26 -15
-20 -20 -20 -20 -20 -20 -20 -20 -20 -20 -20 -20 -20 -20 -20 -20 -20 -20 -20 -20 -20 -4 3 -12 -18 6 4 6 -20 -13 18 -19 -7 -20 -20 -20 -20 -20 -20 -20 -20 11 28
-20 -20 -20 -20 -20 -20 -20 -20 -20 -20 -20 -20 -20 -20 -20 -20 -20 -20 -20 -3 0 1 0 7 -4 -12 -20 2 -14 -20 4 16 -19 2 -20 -20 -20 -20 -20 -20 -16 -20 16
-20 -20 -20 -20 -20 -20 -20 -20 -20 -20 -20 -20 -20 -20 -20 -20 -20 -2 7 13 13 9 2 -5 4 -11 5 -13 11 12 15 14 -20 -20 -20 -20 -20 -20 -20 -20 19 -18 8
-20 -20 -20 -20 -20 -20 -20 -20 -20 -20 -20 -20 -20 -20 -20 -10 -8 -8 1 3 3 1 6 8 4 2 6 7 19 10 16 16 -20 -20 -20 -20 -20 -20 -20 -5 18 21 -16
-20 -20 -20 -20 -20 -20 -2 -20 -20 -20 -20 -20 -20 -20 -20 -20 -20 -20 -20 -20 -4 4 10 11 16 6 -13 5 5 12 12 15 8 -20 -20 -20 -20 -20 -20 -20 -12 27 16
-20 -20 -20 -20 -20 -20 -20 -20 -20 -20 -20 -20 -20 -20 -20 -20 -20 -20 -20 -16 7 8 9 11 14 10 9 8 12 16 12 6 -16 -20 -20 -20 -20 -20 -20 -20 -20 6 11
-20 -20 -20 -20 -20 -20 -20 -20 -20 -20 -20 -20 -20 -20 -20 -20 -20 -2 5 7 3 0 6 8 13 13 10 10 10 15 7 5 -12 -20 -20 -20 -20 -20 -20 -20 -20 -20 3
-20 -20 -20 -20 -20 -20 -20 -20 -20 -20 -20 -20 -20 -20 -20 -20 -4 4 3 8 2 -3 4 0 -19 -14 -2 1 2 4 15 10 7 -20 -20 -20 -20 -20 -20 -20 -20 -20 -20
-20 -20 -20 -20 -20 -20 -20 -20 -20 -20 -20 -20 -20 -20 -20 -6 0 -5 -5 6 4 10 1 5 6 -3 6 5 -20 -9 2 14 18 6 -17 7 -2 -2 -20 -20 -20 -20 -20

GFSMA_prec_radar_006.txt.gz
Reflectivity
11 15 7 -19 -20 -20 -20 -20 -20 -20 -20 -20 -20 -20 -20 -20 -20 -20 -20 -20 -20 -20 -20 -20 -20 -20 -20 -20 -20 -20 -20 -20 -20 -20 -20 -20 -20 -20 -20 -20 -20 1 22
11 36 9 -20 -20 -20 -20 -20 -20 -20 -20 -20 -20 -20 -20 -20 -20 -20 -20 -20 -20 -20 -20 -20 -20 -20 -20 -20 -20 -20 -20 -20 -20 -20 -20 -20 -20 -20 -20 -20 -20 -19 -9
-19 -13 -2 -18 -20 -20 -20 -20 -20 -20 -20 -20 -20 -20 -20 -20 -20 -20 -20 -20 -20 -20 -20 -20 -20 -20 -20 -20 -20 -20 -20 -20 -20 -20 -20 -20 -20 -20 -20 -20 -20 -20 -20
7 19 10 -20 -20 -19 -15 -20 -20 -20 -20 -20 -20 -20 -20 -20 -20 -20 -20 -20 -20 -20 -20 -20 -20 -20 -20 -20 -20 -20 -20 -20 -20 -20 -20 -20 -20 -20 -20 -20 -20 -20 -20
-9 -9 0 -5 -18 -20 -20 -20 -20 -20 -20 -20 -20 -20 -20 -20 -20 -20 -20 -20 -20 -20 -20 -20 -20 -20 -20 -20 -20 -20 -20 -20 -20 -20 -20 -20 -20 12 -17 -20 -20 -20 -20
-20 -20 -20 -20 -20 -20 -20 -20 -20 -20 -20 -20 -20 -20 -20 -20 -20 -20 -20 -20 -20 -20 -20 -20 -20 -20 -20 -20 -20 -20 -20 -20 -20 -20 -20 -20 -20 -20 -14 -20 2 -20 -20
-20 -20 -20 -20 -20 -20 -20 -20 -20 -20 -20 -20 -20 -20 -20 -20 -20 -20 -9 -20 -20 -20 -20 -20 -20 -20 -20 -20 -20 -20 -20 -20 -20 -20 -20 -20 -20 -20 -20 -20 -1 -20 -20
-20 -20 -20 -20 -20 -20 -20 -20 -20 -20 -20 -20 -20 -20 -20 -20 -20 -20 -20 -20 -20 -20 -20 -20 -20 -20 -20 -20 -20 -20 -20 -20 -20 -20 -20 -20 -20 -20 -20 -20 -13 -16 -20
-20 -20 -20 -20 -20 -20 -20 -20 -20 -20 -20 -20 -20 -20 -20 -20 -20 -20 -20 -20 -20 -20 -20 -20 -20 -20 -20 -20 -20 -20 -20 -20 -20 -20 -20 -20 -20 -20 -20 -20 -20 2 -20
-20 -20 -20 -20 -20 -20 -20 -20 -20 -20 -20 -20 -20 -20 -20 -20 -20 -20 -20 -20 -20 -20 -20 -20 -20 -20 -20 -20 -20 -20 -20 -20 -20 -20 -20 -20 -20 -20 -20 -20 -20 11 -20
-20 -20 -20 -20 -20 -20 -20 -20 -20 -20 -20 -20 -20 -20 -20 -20 -20 -20 -20 -20 -20 -20 -20 -20 -20 -20 -20 -20 -20 -20 -20 -20 -20 -20 -20 -20 -20 -20 -20 -20 -20 -20 22
-20 -20 -20 -20 -20 -20 -20 -20 -20 -20 -20 -20 -20 -20 -20 -20 -20 -20 -20 -20 -20 -20 -20 -20 -20 -20 -20 -20 -20 -20 -20 -20 -20 -20 -20 -20 -20 -1 3 -4 -20 -20 21
-20 -20 -20 -20 -20 -8 -20 -20 -19 -20 -20 -20 -20 -20 -20 -20 -20 -20 -20 -20 -20 -20 -20 -20 -20 -20 -20 -20 -20 -20 -20 -20 -20 -20 -20 -20 -20 -20 -20 0 -4 9 5
-20 -20 -20 -20 -20 -20 -20 -10 11 -20 -20 -20 -20 -20 -20 -20 -20 -20 -20 -20 -20 -20 -20 -20 -20 -20 -20 -20 -20 -20 -20 -20 -20 -20 -20 15 -20 -20 -20 -11 -20 8 -13
-20 -20 -20 -18 3 -20 -13 -18 -20 -20 -20 -20 -20 -20 -20 -20 -20 -17 -20 -20 -0 -20 -20 -20 -20 -20 -14 -20 -20 -20 -20 -20 -17 -20 -20 -20 -20 -20 -20 -15 3 -5 7
-20 -20 -20 6 -20 10 -5 -20 -20 -20 -20 -20 -20 -20 -20 -20 -8 -20 -20 -20 -20 -20 -20 -20 -20 -20 -20 -20 -20 -20 -20 -20 -20 -20 -20 -20 -20 -20 -20 -20 21 -5 -16
-20 -20 -20 -5 8 -20 -20 5 -20 -20 -20 -20 -20 -20 -20 -20 -20 -20 -20 -20 -20 -20 -20 -20 -20 -20 -20 -20 -20 -20 -20 -20 -5 -7 -20 -6 -8 -20 -20 -20 -20 -12 4
-20 -20 -20 -11 -0 -20 -19 -20 -20 -20 -20 -20 -20 -20 -20 -20 -20 -6 -20 -20 -20 -20 -7 -8 -20 -20 -20 -20 -20 -19 -20 -20 17 18 -20 -20 -20 -20 -20 -20 -20 -7 -20
-20 -20 -20 -15 -20 -20 -20 -20 -20 -20 -20 -20 -20 -20 -20 -16 -20 -20 -20 -20 -20 -13 10 7 1 -20 -20 -20 -19 -15 -19 -20 -3 16 -20 -20 -20 -20 -20 -20 -20 -20 7
-20 -20 -10 6 -18 -20 -20 -20 -20 -20 -20 -20 -20 -20 -20 -20 -20 -20 -20 -14 -8 3 8 -6 -1 -11 -12 -20 -20 2 18 -1 1 10 2 -20 -20 -20 -20 -20 -9 7 -20
-20 1 -20 -20 -20 -20 -20 -20 -20 -18 -20 -20 -20 -20 -20 -20 -20 -20 -20 -20 -8 -2 1 2 -12 -5 8 -18 6 -9 14 -20 18 21 2 -20 -3 -20 -19 -20 -20 25 -1
-20 0 7 15 -20 -20 -20 -20 -20 -20 -20 -20 -20 -20 -20 -20 -20 -20 -20 -20 -20 -1 5 10 9 7 9 -9 19 17 18 15 5 23 18 -7 6 -20 -11 -20 -20 -14 35
-20 -20 0 16 10 4 -20 -20 -20 -20 -20 -20 -20 -20 -20 -20 -20 -20 -20 -20 -0 -14 -20 8 9 7 12 12 11 11 10 20 14 10 21 -11 2 -20 -20 -20 -20 -20 36
-20 -20 -20 -20 -7 -20 -20 -20 -20 -20 -20 -20 -20 -20 -20 -20 -20 -20 -4 -6 -5 -14 0 -9 7 8 12 14 17 14 12 7 -8 -20 -20 -2 -1 -5 -11 -20 -20 -19 4
-20 -20 -20 -20 -20 -20 -20 -20 -20 -20 -20 -20 -20 -20 -20 -20 -20 -16 -5 -3 -12 -20 -6 -20 -1 -7 -20 -20 -19 10 8 9 19 -6 -5 -20 -14 9 -20 -20 -20 -20 -20
-20 -20 -20 -20 -20 -20 -20 -20 -20 -20 -20 -20 -20 -20 -20 -20 -20 -20 -19 -2 1 1 1 -0 3 -5 -8 8 -19 11 4 8 9 17 17 -17 -15 -12 10 -20 -20 -20 -20

GFSMA_prec_radar_009.txt.gz
Reflectivity
-20 -20 6 -5 24 -14 -20 -20 -20 -20 -20 -20 -20 -20 -20 -20 -20 -20 -20 -20 -20 -20 -20 -20 -20 -20 -20 -20 -20 -20 -20 -20 -20 -20 -20 -20 -20 -20 -20 -20 -20 -20 -20
-20 -20 -20 -20 -20 -20 -20 -20 -20 -20 -20 -20 -20 -20 -19 -20 -20 -20 -20 -20 -20 -20 -20 -20 -20 -20 -20 -20 -20 -20 -20 -20 -20 -20 -20 -20 -20 -20 -20 -20 -20 -20 -20
-13 -12 -20 -3 18 4 -19 -10 -19 -16 -20 -16 -20 -20 -20 -20 -20 -20 -20 -20 -20 -20 -20 -20 -20 -20 -20 -20 -20 -20 -20 -20 -20 -20 -20 -20 -20 -20 -20 -20 -20 -20 -20
-12 -20 -20 0 -20 -20 -20 -20 -20 -20 -20 -20 -20 -20 -20 -20 -20 -20 -20 -20 -20 -20 -20 -20 -20 -20 -20 -20 -20 -20 -20 -20 -20 -20 -20 -20 -20 -20 -20 -18 -20 -20 -20
-20 -20 -20 -20 -20 -20 -20 -20 -20 -20 -20 -20 -20 -20 -20 -20 -20 -20 -20 -20 -20 -20 -20 -20 -20 -20 -20 -20 -20 -20 -20 -20 -20 -20 -20 -20 -20 -20 -20 -20 -11 -15 -20
-20 -20 -20 -20 -20 -20 -20 -20 -20 -20 -20 -20 -20 -20 -20 -20 -20 -20 -20 -20 -20 -20 -20 -20 -20 -20 -20 -20 -20 -20 -20 -20 -20 -20 -20 -20 -20 -20 -20 -20 -20 -13 2
-20 -20 -20 -20 -20 -20 -20 -20 -20 -20 -20 -20 -20 -20 -20 -20 -20 -20 -20 -20 -20 -20 -20 -20 -20 -20 -20 -20 -20 -20 -20 -20 -20 -20 -20 -20 -20 -20 -20 -20 -20 -20 -20
-20 -20 -20 -20 -20 -20 -20 -20 -20 -20 -20 -20 -20 -20 -20 -20 -20 -20 -20 -20 -20 -20 -20 -20 -20 -20 -20 -20 -20 -20 -20 -20 -20 -20 -20 -20 -20 -20 -20 -20 -20 -20 -20
-20 -20 -20 -20 -20 -20 -20 -20 -20 -20 -20 -20 -20 -20 -20 -20 -20 -20 -20 -20 -20 -20 -20 -20 -20 -20 -20 -20 -20 -20 -20 -20 -20 -20 -20 -20 -20 -20 -20 -20 -20 -20 -20
-20 -20 -20 -20 -20 -20 -20 -20 -20 -20 -20 -20 -20 -20 -20 -20 -20 -20 -20 -20 -20 -20 -20 -20 -20 -20 -20 -20 -20 -20 -20 -20 -20 -20 -20 -20 -20 -20 -20 -20 -20 -20 -20
-20 -20 -20 -20 -20 -20 -20 -20 -20 -20 -20 -20 -20 -20 -20 -20 -20 -20 -20 -20 -20 -20 -20 -20 -20 -20 -20 -20 -20 -20 -20 -20 -20 -20 -20 -20 -20 -20 -20 -20 -20 -20 -20
-20 -20 -20 -20 -20 -20 -20 -20 -20 -19 -6 -20 -20 -20 -20 -20 -20 -20 -20 -20 -20 -20 -20 -20 -20 -20 -20 -20 -20 -20 -20 -20 -20 -20 -20 -20 -20 -20 -20 -20 -20 -16 -2
-20 -20 -20 -20 -20 -20 -20 -20 -20 -20 0 -14 -10 -20 -20 -20 -20 -20 -18 -20 -20 -20 -20 -20 -20 -20 -20 -20 -20 -20 -20 -20 -20 -13 -20 -20 -20 -6 -20 -20 -20 0 13
-20 -20 -20 -20 -20 -20 -20 -20 -15 15 15 7 -18 -20 -18 -20 -20 -16 -20 -20 -20 -20 -20 -20 -20 -20 -20 -20 -20 -20 -20 -20 -20 -20 -20 -20 -20 10 -16 -20 -20 -20 11
-20 -20 -20 -20 -20 -20 -5 18 -20 -18 -20 -20 -20 -11 -20 -20 -20 -20 -20 -20 -20 6 -20 -20 -20 -20 -20 -20 -20 -20 -20 -20 -7 -20 -20 -20 -20 5 -20 -20 -20 -20 11
-20 -20 -20 -20 -20 -20 -20 -20 -17 -20 -2 -18 -20 -20 -20 -20 -20 -20 -20 -13 -20 -16 -16 -20 -20 -20 -20 -20 -20 -20 -20 -20 -20 -20 -20 -20 -20 -20 -20 -20 -20 -20 -20
-20 -20 -20 -20 -20 -20 -20 -20 -20 -20 -2 -20 -20 0 -14 -20 -20 -20 -20 -20 -20 -20 -20 -20 -20 -20 -20 -20 -20 -20 -20 -20 -20 -18 -20 -20 -20 -20 -20 -20 -20 -20 -20
-20 -20 -20 -20 -20 -20 -20 -20 -20 -20 -20 3 -9 -20 -20 -20 -19 -20 -20 -20 -20 -20 -20 -20 -20 -8 -14 -20 -20 -20 -20 -20 -20 -20 21 6 -3 -20 -20 -20 -20 -20 -20
-20 -20 -20 -20 -20 -20 -16 -20 -20 -15 10 -20 -11 -19 -20 -20 -20 -20 -20 -20 -20 -20 -20 -3 -1 -12 -20 -20 -20 -20 -20 -20 -20 -15 -14 8 -9 -20 -20 -20 -20 -20 -20
-20 -20 -20 -20 -20 -19 -20 -20 -20 -13 -20 7 -18 -20 -20 -20 -20 -20 -20 -20 -20 -20 -20 -12 -20 -20 -20 -20 -17 8 -4 -20 12 -20 13 10 -4 -20 -20 -20 -20 -20 -20
-20 -20 -20 -20 -20 -14 -20 -20 -20 -20 -20 -20 -20 -20 -20 -20 -20 -20 -20 -20 -20 -20 -20 -18 -18 -1 0 4 8 -20 -13 6 -3 8 7 29 -1 -1 -20 5 -10 -20 -20
-20 -20 -20 -20 10 -6 -15 -20 -20 -20 -20 -20 -20 -20 -20 -20 -20 -20 -20 -20 -20 -18 -2 4 6 -10 4 4 -20 14 15 14 -1 16 -18 31 11 17 -20 8 0 -20 -20
-20 -20 -20 -20 -20 18 -20 -20 -20 -20 -20 -20 -20 -20 -20 -20 -20 -20 -20 -20 -20 -9 -14 -18 8 9 14 10 8 19 17 16 14 13 22 6 6 -19 8 12 -20 -20 -20
-20 -20 -20 -20 -20 -18 -20 -20 -20 -20 -20 -20 -20 -20 -20 -20 -20 -20 -20 -20 -20 -20 -20 -15 -11 -9 -10 -20 -12 0 3 -8 -20 -20 -9 -17 -14 -4 -12 -4 -20 -20 -20
-20 -20 -20 -20 -20 -20 -20 -20 -20 -20 -20 -20 -20 -20 -20 -20 -20 -20 -20 -20 -20 -20 -20 -20 -20 -18 -20 -20 -20 11 -12 -20 5 -20 -19 18 -11 11 -16 -20 -20 -20 -20
-20 -20 -20 -20 -20 -20 -20 -20 -20 -20 -20 -20 -20 -20 -20 -20 -20 -20 -20 -20 -19 -20 -20 -20 -19 -19 -18 -16 -18 -11 9 12 11 -19 6 19 18 14 4 -20 -20 -20 -18

GFSMA_prec_radar_012.txt.gz
Reflectivity
-20 -20 -20 -20 -20 -20 -20 -12 -20 -20 -20 -20 -20 -20 -20 -20 -20 -20 -20 -20 -20 -20 -20 -20 -20 -20 -20 -20 -20 -20 -20 -20 -20 -20 -20 -20 -20 -20 11 -20 -20 -20 -20
-20 1 -20 -20 -17 -20 -20 -20 -20 -20 -20 -20 -20 -20 -20 -20 -20 -20 -20 -20 -20 -20 -20 -20 -20 -20 -20 -20 -20 -20 -20 -20 -20 -20 -20 -20 -20 -20 -20 0 -20 -20 -20
-5 -20 -20 -20 -20 -20 -19 -14 -20 -20 -20 -20 -20 -20 -20 -20 -20 -20 -20 -20 -20 -20 -13 -18 -20 -20 -20 -20 -20 -20 -20 -20 -20 -20 -20 -20 -20 -20 -20 -20 -20 -13 -20
-20 -20 -20 -20 -20 -20 -20 -20 -20 -20 -20 -20 -20 -20 -20 -20 -20 -20 -20 -20 -20 -20 -20 -20 2 -20 -20 -20 -20 -20 -20 -20 -20 -20 -20 -20 -20 -20 -20 -20 -20 -20 -20
-20 -20 -20 -20 -20 -20 -20 -20 -20 -20 -20 -20 -20 -20 -20 -20 -20 -20 -20 -20 -20 -20 -20 -20 -20 -20 -20 -20 -20 -20 -20 -20 -20 -20 -20 -20 -20 -20 -20 -20 -20 -20 -20
-20 -20 -20 -20 -20 -20 -20 -20 -20 -20 -20 -20 -20 -20 -20 -20 -20 -20 -20 -20 -20 -20 -20 -20 -20 -20 -20 -20 -20 -20 -20 -20 -20 -20 12 -20 -20 -20 -20 -20 -20 -20 -20
-20 -20 -20 -20 -20 -20 -20 -20 -20 -20 -20 -20 -20 -20 -20 -20 -20 -20 -20 -20 -20 -20 -20 -20 -20 -20 -20 -20 -20 -20 -20 -20 -20 -20 -20 -20 -20 -20 -20 -20 -20 -20 -20
-20 -20 -20 -20 -20 -20 -20 -20 -20 -20 -20 -20 -20 -20 -20 -20 -20 -20 -20 -20 -20 -20 -20 -20 -20 -20 -20 -20 -20 -20 -20 -20 -20 -20 -20 -20 -20 -20 -20 -20 -20 -20 -20
-20 -20 -20 -20 -20 -20 -20 -20 -20 -20 -20 -20 -20 -20 -20 -20 -20 -20 -20 -20 -20 -20 -20 -20 -20 -20 -20 -20 -20 -20 -20 -20 -20 -20 -20 -20 -20 -20 -20 -20 -20 -20 -20
-20 -20 -20 -20 -20 -20 -20 -20 -20 -20 -20 -20 -20 -20 -20 -20 -20 -20 -20 -20 -20 -20 -20 -20 -20 -20 -20 -20 -20 -20 -20 -20 -20 -20 -20 -20 -20 -20 -20 -20 -20 -20 -20
-20 -20 -20 -20 -20 -20 -20 -20 -20 -20 -20 -20 -20 -20 -20 -20 -20 -20 -20 -20 -20 -20 -20 -20 -20 -20 -20 -20 -20 -20 -20 -20 -20 -20 -20 -20 -20 -20 -20 -20 -20 -20 -20
-20 -20 -20 -20 -20 -20 -20 -20 -20 -20 -20 -20 -20 -20 -20 -20 -20 -20 -20 -20 -20 -20 -20 -20 -20 -20 -20 -20 -20 -20 -20 -20 -20 -20 -20 -20 -20 -20 -20 4 -12 -20 -20
-20 -20 -20 -20 -20 -20 -20 -20 -20 -20 -20 -20 -20 -20 -20 -20 -20 -20 -20 -20 -20 -20 -20 -20 -20 -20 -20 -20 -20 -20 -20 -20 -20 -20 -20 -20 -20 -20 -20 -17 6 4 3
-20 -20 -20 -20 -20 -20 -20 -20 -20 -20 -20 -20 -20 -20 -20 -20 -20 -20 -20 -20 -20 -20 -20 -20 -20 -20 -20 -20 -20 -20 -20 -20 -20 -20 -20 -20 -20 -20 -20 -20 -17 -20 -20
-20 -20 -20 -20 -20 -20 -20 -20 -20 -20 -20 -20 -20 -17 -1 -20 -20 -20 -20 -20 -20 -20 -20 -20 -20 -20 -20 -20 -20 -20 -20 -20 -20 -20 -20 -20 -19 -20 -20 -20 -20 -20 -20
-20 -20 -20 -20 -20 -20 -12 -20 -20 -19 -19 -20 -20 21 -13 -20 -16 -20 -20 -20 -20 -20 -16 -20 -20 -20 -20 -20 -20 -20 -20 -20 -20 -20 -20 -20 -10 -20 -20 -20 -20 -20 -20
-20 -20 -20 -20 -20 -20 -20 -20 -20 -20 -20 -20 5 -17 -9 -18 -12 -20 -20 -20 -20 -20 -20 -20 -20 -20 -20 -20 -20 -20 -20 -20 -20 -20 -14 -4 -1 -20 -20 -20 -20 -20 -20
-20 -20 -20 -20 -20 -20 -20 -20 -20 -20 -20 -20 -20 0 -20 -20 -20 -20 -20 -20 -20 -20 -20 -20 -20 -20 -20 -20 -20 -20 -20 -20 -20 -20 -20 4 -19 -20 -20 -20 -20 -20 -20
-20 -20 -20 -20 -20 -20 -20 -20 -20 -20 -20 -20 -20 -20 -20 -20 -20 -20 -20 -20 -20 -20 -20 -20 -20 -20 -20 -20 -20 -20 -20 -20 -20 -20 -4 10 2 4 -20 -20 -17 -20 -20
-20 -20 -20 -20 -20 -20 -20 -20 -20 -20 -20 -20 -20 -20 -20 -20 -20 -20 -20 -20 -20 -20 -20 -20 -20 -20 -20 -20 -20 -18 -20 -20 -20 -20 -20 -19 -20 20 -13 -20 -12 -20 -20
-20 -20 -20 -20 -20 -20 -16 -20 -20 -20 -20 -20 -20 -20 -20 -20 -20 -20 -20 -20 -20 -20 -20 -20 -20 -20 -20 -20 -20 -20 1 -20 -20 -20 8 -20 -7 33 -9 -18 -12 -20 -20
-20 -20 -20 -20 -20 3 -17 -0 -14 -20 -20 -20 -20 -20 -20 -20 -20 -20 -20 -20 -20 -20 -20 -20 -20 -20 -20 -4 9 9 -10 -11 -4 -20 -20 -20 -20 9 33 33 15 -20 -20
-13 -10 -20 -17 -14 -20 -13 -20 -20 -20 -20 -20 -20 -20 -20 -20 -20 -20 -20 -20 -20 -20 -20 -14 -9 1 6 -16 -20 -20 -20 -20 -20 -20 -20 -20 -6 3 18 17 -20 -20 -20
-11 -19 -18 -14 -19 -16 -20 -20 -20 -20 -20 -20 -20 -20 -20 -20 -20 -20 -20 -20 -20 -20 -20 -20 -20 -20 -20 -20 -20 -20 -20 -20 -20 -20 -20 -20 -17 -20 -20 -14 -20 -20 -20
-19 -20 -20 -19 -11 -20 -20 -20 -20 -20 -20 -20 -20 -20 -20 -20 -20 -20 -20 -20 -20 -20 -20 -20 -20 -20 -20 -20 -20 -20 -20 -19 -20 -20 -20 -1 -20 -20 -20 -20 -20 -20 -20
-10 -10 -4 -11 -15 -20 -20 -20 -20 -20 -20 -20 -20 -20 -20 -20 -20 -20 -20 -20 -20 -20 -20 -20 -20 -20 -20 -20 10 8 4 -17 -20 -19 -20 4 -20 6 -15 -20 -20 -20 -20

GFSMA_prec_radar_015.txt.gz
Reflectivity
-20 -20 -20 -20 -20 -20 -20 -20 -20 -20 -20 -20 -20 -20 -20 -20 -20 -20 -20 -20 -20 -20 -20 -20 -20 -20 -20 -20 -20 -20 -20 -20 -20 -20 -20 -20 -20 -20 -20 -20 -20 -20 -20
-20 -20 -20 -20 -20 -20 -20 -20 -20 -20 -20 -20 -20 -20 -20 -20 -20 -20 -20 -20 -20 -20 -20 -20 -20 -20 -20 -20 -20 -20 -20 -20 -20 -20 -20 -20 -20 -20 -20 -20 -20 -20 -20
-20 -20 -20 -20 -20 -20 -20 -20 -20 -20 -20 -20 -20 -20 -20 -20 -20 -20 -20 -20 -20 -20 -20 -20 -20 -20 -20 -20 -20 -20 -20 -20 -20 -20 -20 -20 -20 -20 -20 -20 -20 -20 -20
-20 -20 -20 -20 -20 -20 -20 -20 -20 -20 -20 -20 -20 -20 -20 -20 -20 -20 -20 -20 -20 -20 -20 -20 -20 -20 -20 -20 -20 -20 -20 -20 -20 -20 -20 -20 -20 -20 -20 -20 -20 -20 -20
-20 -20 -20 -20 -20 -20 -20 -20 -20 -20 -20 -20 -20 -20 -20 -20 -20 -20 -20 -20 -20 -20 -20 -20 -20 -20 -20 -20 -20 -20 -20 -20 -20 -20 -20 -14 9 -20 -20 -20 -20 -20 -20
-20 -20 -20 -20 -20 -20 -20 -20 -20 -20 -20 -20 -20 -20 -20 -20 -20 -20 -20 -20 -20 -20 -20 -20 -20 -20 -20 -20 -20 -20 -20 -20 -20 -20 -20 -20 -20 -20 -20 -20 -20 -20 -20
-20 -20 -20 -20 -20 -20 -20 -20 -20 -20 -20 -20 -20 -20 -20 -20 -20 -20 -20 -20 -20 -20 -20 -20 -20 -20 -20 -20 -20 -20 -20 -20 -20 -20 -20 -20 -20 -20 -20 -20 -20 -20 -20
-20 -20 -20 -20 -20 -20 -20 -20 -20 -20 -20 -20 -20 -20 -20 -20 -20 -20 -20 -20 -20 -20 -20 -20 -20 -20 -20 -20 -20 -20 -20 -20 -20 -20 -20 -20 -20 -20 -20 -20 -20 -20 -20
-20 -20 -20 -20 -20 -20 -20 -20 -20 -20 -20 -20 -20 -20 -20 -20 -20 -20 -20 -20 -20 -20 -20 -20 -20 -20 -20 -20 -20 -20 -20 -20 -20 -20 -20 -20 -20 -20 -20 -20 -20 -20 -20
-20 -20 -20 -20 -20 -20 -20 -20 -20 -20 -20 -20 -20 -20 -20 -20 -20 -20 -20 -20 -20 -20 -20 -20 -20 -20 -20 -20 -20 -20 -20 -20 -20 -20 -20 -20 -20 -20 -20 -20 -20 -20 -20
-20 -20 -20 -20 -20 -20 -20 -20 -20 -20 -20 -20 -20 -20 -20 -20 -20 -20 -20 -20 -20 -20 -20 -20 -20 -20 -20 -20 -20 -20 -20 -20 -20 -20 -20 -20 -20 -20 -20 -20 -20 -1 1
-20 -20 -20 -20 -20 -20 -20 -20 -20 -20 -20 -20 -20 -20 -20 -20 -20 -20 -20 -20 -20 -20 -20 -20 -20 -20 -20 -20 -20 -20 -20 -20 -20 -20 -20 -20 -20 -20 -20 -7 -20 -7 -8
-20 -20 -20 -20 -20 -20 -20 -20 -20 -20 -20 -20 -20 -20 -20 -20 -20 -20 -20 -20 -20 -20 -20 -20 -20 -20 -20 -20 -20 -20 -20 -20 -20 -20 -20 -20 -20 -20 -20 -20 -20 -20 17
-20 -20 -20 -20 -20 -20 -20 -20 -20 -20 -20 -20 -20 -20 -20 -20 -20 -20 -20 -20 -20 -20 -20 -20 -20 -20 -20 -20 -20 -20 -20 -20 -20 -20 -20 -20 -20 -20 -20 -20 -20 -10 6
5 -20 -20 -20 -20 -20 -20 -20 -20 -20 -20 -20 -20 -18 -20 -20 -20 -20 -20 -20 -20 -20 -20 -20 -20 -20 -20 -20 -20 -20 -20 -20 -20 -20 -20 -20 -20 -20 -18 -20 -11 -20 -20
-6 -11 10 -20 -20 -20 -20 -20 -20 -20 -20 -20 -20 -8 -20 10 -2 -20 -20 -20 -20 -20 -20 -20 -20 -20 -20 -20 -20 -20 -20 -20 -20 -20 -20 -20 -20 -15 -5 -20 -20 -20 -20
-20 -11 -20 -20 -20 -20 -20 -20 -20 -20 -20 -20 -20 -20 -18 -20 -20 -20 -20 -20 -20 -20 -20 -20 -20 -20 -20 -20 -20 -20 -20 -20 -20 -20 -20 -20 -9 -10 -20 2 -1 -20 -20
-20 -18 -20 -20 -20 -20 -20 -20 -20 -20 -20 -20 -20 -7 -11 -20 -20 -20 -20 -20 -20 -20 -20 -20 -20 -20 -20 -20 -20 -20 -20 -20 -20 -20 -20 -20 -19 -20 8 -20 -20 -20 -20
-20 -3 -2 -20 -20 -20 -20 -20 -20 -20 -20 -20 -20 -20 -20 -20 -20 -20 -20 -20 -20 -20 -20 -20 -20 -20 -20 -20 -20 -20 -20 -20 -20 -20 -20 -20 -2 -20 -20 -20 -20 -20 8
-19 -2 -20 -18 -20 -20 -10 5 -20 -20 -18 -20 -20 -20 -20 -20 -20 -20 -20 -20 -20 -20 -20 -20 -20 -20 -20 -20 -20 -20 -17 -20 -20 -20 -20 -5 -20 -20 -20 3 -20 -20 -20
-17 -9 -18 -20 -12 -4 3 0 -20 -3 -10 -20 -20 -20 -20 -20 -20 -20 -20 -20 -20 -20 -20 -20 -20 -20 -20 -20 -20 -2 -15 -20 -20 -20 -20 -20 -20 -20 -20 9 -12 -10 -20
-1 10 8 11 6 -6 -20 -20 -0 -17 -20 -20 -20 -20 -20 -20 -20 -20 -20 -20 -20 -20 -20 -20 -20 -20 -20 -20 4 -20 -20 -20 -20 -20 -20 -20 -20 -20 -20 19 21 31 25
-2 -6 -2 -11 -16 -20 -20 -2 -3 -20 -20 -20 -20 -20 -20 -20 -20 -20 -20 -20 -20 -20 -20 -20 -20 -20 -20 -20 -20 -20 -20 -20 -20 -20 -20 -20 -20 -20 -17 16 4 33 -5
2 -20 -20 -20 -20 -20 -14 -20 -20 -20 -20 -20 -20 -20 -20 -20 -20 -20 -20 -20 -20 -20 -20 -20 -20 -20 -20 -20 -18 -20 -20 -20 -20 -20 -20 -20 -20 -20 -20 -1 -18 -8 6
-20 -20 -20 -20 -10 -20 -18 -20 -20 -20 -20 -20 -20 -20 -20 -20 -20 -20 -20 -20 -20 -20 -20 -20 -20 -20 -20 -20 -20 1 -2 0 -15 -20 -20 -20 -20 -20 -20 -20 -19 -20 -20
-20 -20 -2 -20 -20 -20 -20 -19 -20 -20 -20 -20 -20 -20 -20 -20 -20 -20 -20 -20 -20 -20 -20 -20 -20 -20 -20 -20 -20 -20 -17 2 -7 -19 -15 -19 -20 -20 -20 -20 -20 -20 -20

GFSMA_prec_radar_021.txt.gz
Reflectivity
-20 -20 -20 -20 -20 -20 -20 -20 -20 -20 -20 -20 -20 -20 -20 -20 -20 -20 -20 -20 -20 -20 -20 6 -4 -20 -20 -20 -20 -20 -20 -20 -20 -20 -20 -20 -20 -20 -20 -20 -20 -20 -20
-20 -20 -20 -20 -20 -20 -20 -20 -20 -20 -20 -20 -20 -20 -20 -20 -20 -20 -20 -20 -20 -20 -20 -20 -20 -20 -20 -20 -20 -20 -20 -20 -20 -20 -20 -20 -20 -20 -20 -20 -20 -20 -20
-20 -20 -20 -20 -20 -20 -20 -20 -20 -20 -20 -20 -20 -20 -20 -20 -20 -20 -20 -20 -20 -20 -20 -20 -20 -20 -20 -20 -20 -20 -20 -20 -20 -20 -20 -20 -20 -20 -20 -20 -20 -20 -20
-20 -20 -20 -20 -20 -20 -20 -20 -20 -20 -20 -20 -20 -20 -20 -20 -20 -20 -20 -20 -20 -20 -20 -20 -20 -20 -20 -20 -20 -20 -20 -20 -20 -20 -20 -20 -20 -20 -20 -20 -20 -20 -20
-20 -20 -20 -20 -20 -20 -20 -20 -20 -20 -20 -20 -20 -20 -20 -20 -20 -20 -20 -20 -20 -20 -20 -20 -20 -20 -20 -20 -20 -20 -20 -20 -20 -20 -20 -20 -20 -20 -20 -20 -20 -20 -20
-20 -20 -20 -20 -20 -20 -20 -20 -20 -20 -20 -20 -20 -20 -20 -20 -20 -20 -20 -20 -20 -20 -20 -20 -20 -20 -20 -20 -20 -20 -20 -20 -20 -20 -20 -20 -20 -20 -20 -20 -20 -20 -20
-20 -20 -20 -20 -20 -20 -20 -20 -20 -20 -20 -20 -20 -20 -20 -20 -20 -20 -20 -20 -20 -20 -20 -20 -20 -20 -20 -20 -20 -20 -20 -20 -20 -20 -20 -20 -20 -20 -20 -20 -20 -20 -20
-20 -20 -20 -20 -20 -20 -20 -20 -20 -20 -20 -20 -20 -20 -20 -20 -20 -20 -20 -20 -20 -20 -20 -20 -20 -20 -20 -20 -20 -20 -20 -20 -20 -20 -20 -20 -20 -20 -20 -20 -20 -20 -15
-20 -20 -20 -20 -20 -20 -20 -20 -20 -20 -20 -20 -20 -20 -20 -20 -20 -20 -20 -20 -20 -20 -20 -20 -20 -20 -20 -20 -20 -20 -20 -20 -20 -20 -20 -20 -20 -20 -20 -20 -20 -17 -19
-20 -20 -20 -20 -20 -20 -20 -20 -20 -20 -20 -20 -20 -20 -20 -20 -20 -20 -20 -20 -20 -20 -20 -20 -20 -20 -20 -20 -20 -20 -20 -20 -20 -20 -20 -20 -20 -20 -20 -20 -20 -20 -20
-20 -20 -20 -20 -20 -20 -20 -14 -20 -20 -20 -20 -20 -20 -20 -20 -20 -20 -20 -20 -20 -20 -20 -20 -20 -20 -20 -20 -20 -20 -20 -20 -20 -20 -20 -20 -20 -20 -20 -20 -20 -20 -20
-20 -20 -20 -20 -20 1 15 -7 -20 -20 -20 -20 -20 -20 -20 -20 -20 -20 -20 -20 -20 -20 -20 -20 -20 -20 -20 -20 -20 -20 -20 -20 -20 -20 -20 -20 -20 -20 -20 -20 -20 -20 -20
-20 -20 -20 -20 -20 25 -14 -18 -20 -20 -20 -20 -20 -20 -20 -20 -20 -20 -20 -20 -20 -20 -20 -20 -20 -20 -20 -20 -20 -20 -20 -20 -20 -20 -20 -20 -20 -20 -20 -20 -20 -20 -20
-20 -20 -20 -3 27 -1 -20 -14 -20 -20 -20 -20 -20 -20 -20 -20 -20 -20 -20 -20 -20 -20 -20 -20 -20 -20 -20 -20 -20 -20 -20 -20 -20 -20 -20 -20 -20 -20 -20 -20 -12 -20 -20
-18 -18 14 4 7 12 -19 -20 -3 0 -20 -20 -20 -20 -20 -20 -20 -20 -20 -20 -20 -15 -20 -20 -20 -20 -20 -20 -20 -20 -20 -20 -20 -20 -20 -20 -20 -20 3 -20 -20 5 -20
5 -4 -2 16 -18 -20 -20 -20 -12 -20 -20 -20 -20 -20 -20 -20 -20 -20 -20 -20 -20 -20 -20 -20 -20 -20 -20 -20 -20 -20 -20 -20 -20 -20 -20 -20 -8 6 -17 5 -9 -16 -19
-18 -20 -18 -20 -20 -19 -19 -20 -20 -20 -20 -20 -20 -20 -20 -20 -20 -20 -20 -20 -20 -20 -20 -20 -20 -20 -20 -20 -20 -20 -20 -20 -20 -20 -20 -5 -20 -20 -20 8 -4 -20 -20
-20 -20 -20 -20 -20 -10 10 -19 -20 -20 -20 -20 -20 -20 -20 -20 -20 -20 -20 -20 -20 -20 -20 -20 -20 -20 -20 -20 -20 -20 -20 -20 -20 -20 -20 -20 -20 -20 -20 -20 -20 -20 -20
-20 -20 -20 -20 -4 15 -16 -20 -20 -20 -20 -20 -20 -20 -20 -20 -20 -20 -20 -20 -20 -20 -20 -20 -20 -20 -20 -20 -20 -20 -20 -20 -20 -20 -20 -20 -20 -20 -20 -20 -20 -20 -17
-20 -20 -20 -20 18 -20 -20 -20 -20 -20 -20 -20 -20 -20 -20 -20 -20 -20 -20 -20 -20 -20 -20 -20 -20 -20 -20 -20 -20 -20 -20 -20 -20 -20 -20 -20 -20 -20 -20 -20 -20 -20 -3
-19 -20 -20 19 -16 -20 -20 -20 -20 -20 -20 -20 -20 -20 -20 -20 -20 -20 -20 -20 -20 -20 -20 -20 -20 -20 -20 -20 -20 -20 -20 -20 -20 -20 -20 -20 -20 -20 -20 -20 -20 -20 -20
-15 -3 8 18 -12 -20 -20 -20 -20 -20 -20 -20 -20 -20 -20 -20 -20 -20 -20 -20 -20 -20 -20 -20 -20 -20 -20 -20 -20 -20 -20 -20 -20 -20 -20 -20 -20 -20 -20 -20 -20 -20 -20
-6 11 25 20 -3 -20 -20 -20 -20 -20 -20 -20 -20 -20 -20 -20 -20 -20 -20 -20 -20 -20 -20 -20 -20 -20 -20 -20 -20 -20 -20 -19 -14 -20 -20 -20 -20 -20 -20 -20 -20 -20 -8
34 13 28 4 -14 -20 -20 -20 -20 -20 -20 -20 -20 -20 -20 -20 -20 -20 -20 -20 -20 -20 -20 -20 -20 -20 -20 -20 -20 -15 10 4 -20 -20 -20 -20 -20 -20 -20 -20 -20 -20 -20
20 -4 -20 -11 -19 -20 -20 -20 -20 -20 -20 -20 -20 -20 -20 -20 -20 -20 -20 -20 -20 -20 -20 -20 -20 -20 -20 -20 -20 -20 -20 -20 -20 -20 -20 -20 -20 -20 -20 -20 -20 -20 -20
8 4 -18 -20 -20 -20 -20 -20 -20 -20 -20 -20 -20 -20 -20 -20 -20 -20 -20 -20 -20 -20 -20 -20 -20 -20 -20 -20 -20 -20 -20 -20 -20 -20 -20 -20 -20 -16 -2 -20 -20 -20 -20

GFSMA_prec_radar_024.txt.gz
Reflectivity
-20 -20 -20 -20 -20 -20 -20 -20 -20 -20 -20 -20 -20 -20 -20 -20 -20 -20 -20 -20 -20 -20 -20 11 -20 -20 -20 -20 -20 -20 -20 -20 -20 -20 -20 -20 -20 -20 -20 -20 -20 -20 -20
-20 -20 -20 -20 -20 -20 -20 -20 -20 -20 -20 -20 -20 -20 -20 -20 -20 -20 -20 -20 -20 -20 -20 -20 -20 -20 -20 -20 -20 -20 -20 -20 -20 -20 -20 8 -14 -20 -20 -20 -20 -20 -20
-20 -20 -20 -20 -20 -20 -20 -20 -20 -20 -20 -20 -20 -20 -20 -20 -20 -20 -20 -20 -20 -20 -20 -20 -20 -20 -20 -20 -20 -20 -20 -20 -20 -20 -20 -0 -0 -20 -20 -20 -20 -20 -20
-20 -20 -20 -20 -20 -20 -20 -20 -20 -20 -20 -20 -20 -20 -20 -20 -20 -20 -20 -20 -20 -20 -20 -20 -20 -20 -20 -20 -20 -20 -20 -20 -20 -20 -10 2 -20 -20 -20 -20 -20 -20 -20
-20 -20 -20 -20 -20 -20 -20 -20 -20 -20 -20 -20 -20 -20 -20 -20 -20 -20 -20 -20 -20 -20 -20 -20 -20 -20 -20 -20 -20 -20 -20 -20 -20 -20 -20 -20 -20 -20 -20 -20 -20 -20 -20
-20 -20 -20 -20 -20 -20 -20 -20 -20 -20 -20 -20 -20 -20 -20 -20 -20 -20 -20 -20 -20 -20 -20 -20 -20 -20 -20 -20 -20 -20 -20 -20 -20 -20 -20 -20 -20 -20 -20 -20 -20 -20 -20
-20 -20 -20 -20 -20 -20 -20 -20 -20 -20 -20 -20 -20 -20 -20 -20 -20 -20 -20 -20 -20 -20 -20 -20 -20 -20 -20 -20 -20 -20 -20 -20 -20 -20 -20 -20 -20 -20 -20 -20 -20 -20 -20
-20 -20 -20 -20 -20 -20 -20 -20 -20 -20 -20 -20 -20 -20 -20 -20 -20 -20 -20 -20 -20 -20 -20 -20 -20 -20 -20 -20 -20 -20 -20 -20 -20 -20 -20 -20 -20 -20 -7 -20 -20 -20 -20
-20 -20 -20 -20 -20 -20 -20 -20 -20 -20 -20 -20 -20 -20 -20 -20 -20 -20 -20 -20 -20 -20 -20 -20 -20 -20 -20 -20 -20 -20 -20 -20 -20 -20 -20 -20 -20 -20 -20 -20 -20 -20 -20
-20 -20 -20 -20 -20 -20 -20 -20 -20 3 -20 -20 -20 -20 -20 -20 -20 -20 -20 -20 -20 -20 -20 -20 -20 -20 -20 -20 -20 -20 -20 -20 -20 -20 -20 -20 -20 -20 -20 -20 -20 -20 -20
-20 -20 -20 -20 -20 -20 -19 -14 17 8 -20 -20 -20 -20 -20 -20 -20 -20 -20 -20 -20 -20 -20 -20 -20 -20 -20 -20 -20 -20 -20 -20 -20 -20 -20 -20 -20 -20 -20 -11 -20 -20 -20
-20 -20 -20 -20 -20 -17 -2 -3 -20 -20 -20 -20 -20 -20 -15 -20 -20 -20 -20 -20 -20 -20 -20 -20 -20 -20 -20 -20 -20 -20 -20 -20 -20 -20 -20 -20 -20 -20 -20 -20 -20 -20 -20
-6 -20 -20 -20 14 13 -20 9 14 -3 -20 -20 -20 -20 -20 -20 -20 -20 -20 -20 -20 -20 -20 -20 -20 -20 -20 -20 -20 -20 -20 -20 -20 -20 -20 -20 -20 -20 -20 -20 -20 -20 -20
5 -20 -20 -13 -13 -17 -20 9 -20 -20 -20 -20 -20 -20 -20 -20 -20 -20 -20 -20 -20 -20 -20 -20 -20 -20 -20 -20 -20 -20 -20 -20 -20 -20 -20 -20 -20 -20 -20 -20 -20 -1 -20
-20 -0 -20 -11 -13 -16 18 -14 -20 -20 -20 -20 -20 -20 -20 -20 -20 -20 -20 -20 -20 -20 -20 -20 -20 -20 -20 -20 -20 -20 -20 -20 -20 -20 -20 -20 -20 -20 -17 1 -9 -20 5
-14 6 22 -9 -17 -8 -20 -20 -18 -20 -20 -20 -20 -20 -20 -20 -20 -20 -20 -20 -20 -20 -20 -20 -20 -20 -20 -20 -20 -20 -20 -20 -20 -20 -20 -20 -20 -10 -20 -20 -20 -20 2
6 2 -6 -20 -18 -20 -20 -20 -20 -20 -20 -20 -20 -20 -20 -20 -20 -20 -20 -20 -20 -20 -20 -20 -20 -20 -20 -20 -20 -20 -20 -20 -20 -20 -20 -20 -20 -20 -20 -20 -20 9 1
-20 -6 -10 -20 -20 -20 -20 -17 -20 -20 -20 -20 -20 -20 -20 -20 -20 -20 -20 -20 -20 -20 -20 -20 -20 -20 -20 -20 -20 -20 -20 -20 -20 -20 -20 -20 -20 -20 -20 -20 -20 -20 -20
-10 -19 -20 -20 -16 -20 0 0 -18 -20 -20 -20 -20 -20 -20 -20 -20 -20 -20 -20 -20 -20 -20 -20 -20 -20 -20 -20 -20 -20 -20 -20 -20 -20 -20 -20 -20 -20 -20 -20 -20 -20 -20
-16 -15 -2 -15 -20 -19 21 10 3 -20 -20 -20 -20 -20 -20 -20 -20 -20 -20 -20 -20 -20 -20 -20 -20 -20 -20 -20 -20 -20 -20 -20 -20 -20 -20 -20 -20 -20 -20 -20 -20 -20 -20
-20 -12 -20 -20 3 33 21 -11 -20 -20 -20 -20 -20 -20 -20 -20 -20 -20 -20 -20 -20 -20 -20 -20 -20 -20 -20 -20 -20 -20 -20 -20 -20 -20 -20 -20 -20 -20 -20 -20 -20 -20 -20
-19 -15 -20 1 21 16 -11 -20 -20 -20 -20 -20 -20 -20 -20 -20 -20 -20 -20 -20 -20 -20 -20 -20 -20 -20 -20 -20 -20 -20 -20 -20 -3 -20 -20 -20 -20 -20 -20 -20 -20 -20 -20
18 16 17 39 26 -19 -16 -20 -20 -20 -20 -20 -20 -20 -20 -20 -20 -20 -20 -20 -20 -20 -20 -20 -20 -20 -20 -20 -20 -20 -20 -20 1 -20 -20 -20 -20 -20 -20 -20 -20 -20 0
17 6 21 28 6 -19 4 -20 -20 -20 -20 -20 -20 -20 -20 -20 -20 -20 -20 -20 -20 -20 -20 -20 -20 -20 -20 -20 -20 -20 -20 -20 -20 -20 -20 -12 -20 -20 -20 -20 -20 -20 -20
40 21 21 -9 20 -8 -18 -20 -20 -20 -20 -20 -20 -20 -20 -20 -20 -20 -20 -20 -20 -20 -20 -20 -20 -20 -20 -20 -20 -20 -20 -20 -20 -20 -20 -20 -20 -20 -20 -20 -20 -20 -20
20 21 23 18 -19 -20 -20 -20 -20 -20 -20 -20 -20 -20 -20 -20 -20 -20 -20 -20 -20 -20 -20 -20 -20 -20 -20 -20 -20 -20 -20 -20 -20 -19 -20 -20 -20 -19 -17 -20 -20 -20 -20

GFSMA_prec_radar_027.txt.gz
Reflectivity
-20 -20 -20 -20 -20 -20 -20 -20 -20 -20 -20 -20 -20 -20 -20 -20 -20 -20 -20 -20 -20 -20 -20 -20 -20 -20 -20 -20 -20 -20 -20 -20 -20 -20 -20 -20 -20 -20 -20 -20 -20 -20 -20
-20 -20 -20 -20 -20 -20 -20 -20 -20 -20 -20 -20 -20 -20 -20 -20 -20 -20 -20 -20 -20 -20 -20 -20 -20 -20 -13 -20 -20 -20 -20 -20 -20 -20 -20 -20 -20 -20 -20 -20 -20 -20 -20
-20 -20 -20 -20 -20 -20 -20 -20 -20 -20 -20 -20 -20 -20 -20 -20 -20 -20 -20 -20 -20 -20 -20 -20 -20 -20 -20 -20 -20 -20 -20 -20 -20 -20 -20 -20 -20 -20 -20 -20 -20 -20 -20
-20 -20 -20 -20 -20 -20 -20 -20 -20 -20 -20 -20 -20 -20 -20 -20 -20 -20 -20 -20 -20 -20 -20 -20 -20 -20 -20 -20 -20 -20 -20 -20 -20 -20 -20 -20 -20 -20 -20 -20 -20 -20 -20
-20 -20 -20 -20 -20 -20 -20 -20 -20 -20 -20 -20 -20 -20 -20 -20 -20 -20 -20 -20 -20 -20 -20 -20 -20 -20 -20 -20 -20 -20 -20 -20 -20 -20 -20 -20 -20 -20 -20 -20 -20 -20 -20
-20 -20 -20 -20 -20 -20 -20 -20 -20 -20 -20 -20 -20 -20 -20 -20 -20 -20 -20 -20 -20 -20 -20 -20 -20 -20 -20 -20 -20 -20 -20 -20 -20 -20 -20 -20 -20 -20 -20 -20 -20 -20 -20
-20 -20 -20 -20 -20 -20 -20 -20 -20 -20 -20 -20 -20 -20 -20 -20 -20 -20 -20 -20 -20 -20 -20 -20 -20 -20 -20 -20 -20 -20 -20 -20 -20 -20 -20 -20 -20 -20 -20 -20 -20 -20 -20
-20 -20 -20 -20 -20 -20 -20 -20 -20 -20 -20 -20 -20 -20 -20 -20 -20 -20 -20 -20 -20 -20 -20 -20 -20 -20 -20 -20 -20 -20 -20 -20 -20 -20 -20 -20 -20 -20 -20 -20 -20 -15 -20
-20 -20 -20 -20 -20 -20 -20 -20 -20 -20 -20 -15 -20 -20 -20 -20 -20 -20 -20 -20 -20 -20 -20 -20 -20 -20 -20 -20 -20 -20 -20 -20 -20 -20 -20 -20 -20 -20 -20 -20 -20 -20 -20
-20 -20 -20 -20 -20 -20 -20 -20 -20 -14 -20 -4 -20 -20 -20 -20 -20 -20 -20 -20 -20 -20 -20 -20 -20 -20 -20 -20 -20 -20 -20 -20 -20 -20 -20 -20 -20 -20 -20 -20 -20 -19 -20
-20 -20 -20 -20 -20 -20 -20 -20 16 28 -2 -9 -20 -20 -20 -20 -20 -20 -20 -20 -20 -20 -20 -20 -20 -20 -20 -20 -20 -20 -20 -20 -20 -20 -20 -20 -20 -20 -20 -20 -20 -20 -20
-18 -20 -20 -20 -20 -20 -20 -20 -15 -20 -18 -20 -20 -20 -20 -20 -20 -20 -20 -20 -20 -20 -20 -20 -20 -20 -20 -20 -20 -20 -20 -20 -20 -20 -20 -20 -20 -20 -20 -20 -20 -20 -20
12 6 11 -4 -20 -20 -20 -20 -20 -20 -20 -20 -20 -20 -20 -20 -20 -20 -20 -20 -20 -20 -20 -20 -20 -20 -20 -20 -20 -20 -20 -20 -20 -20 -20 -20 -20 -20 -20 -20 -20 -16 -4
15 19 13 -20 -20 -20 18 24 -20 -20 -20 -20 -20 -20 -20 -20 -20 -20 -20 -20 -20 -20 -20 -20 -20 -20 -20 -20 -20 -20 -20 -20 -20 -20 -20 -20 -20 -20 -20 -20 -20 -20 -20
17 -20 -20 -20 -18 37 -11 -20 -20 -20 -20 -20 -20 -20 -20 -20 -20 -20 -20 -20 -20 -20 -20 -20 -20 -20 -20 -20 -20 -20 -20 -20 -20 -20 -20 -20 -20 -20 -20 -20 -8 -20 -20
-2 17 -3 -4 33 -20 -20 -20 -20 -20 -20 -20 -20 -20 -20 -20 -20 -20 -20 -20 -20 -20 -20 -20 -20 -20 -20 -20 -20 -20 -20 -20 -20 -20 -20 -20 -20 -20 -20 -20 -20 -20 -20
29 33 0 22 -20 -20 3 -20 -20 -19 -20 -20 -20 -20 -20 -20 -20 -20 -20 -20 -20 -20 -20 -20 -20 -20 -20 -20 -20 -20 -20 -20 -20 -20 -20 -20 -20 -20 -20 -20 -20 -20 -20
30 -10 -16 -20 -20 18 -5 12 -19 9 -13 -12 -20 -20 -20 -20 -20 -20 -20 -20 -20 -20 -20 -20 -20 -20 -20 -20 -20 -20 -20 -20 -20 -20 -20 -20 -20 -20 -20 -20 -20 -7 -1
-20 23 -3 -18 10 -20 -20 -20 14 12 -5 -20 -20 -20 -20 -20 -20 -20 -20 -20 -20 -20 -20 -20 -20 -20 -20 -20 -20 -20 -20 -20 -20 -20 -20 -20 -20 -20 -20 -20 -20 -20 -20
-11 0 -20 -11 -12 -19 12 3 31 14 -20 -20 -20 -20 -20 -20 -20 -20 -20 -20 -20 -20 -20 -20 -20 -20 -20 -20 -20 -20 -20 -20 -20 -20 -20 -20 -20 -20 -20 -20 -20 -20 -20
-3 -1 -7 2 -17 30 26 28 8 -20 -20 -20 -20 -20 -20 -20 -20 -20 -20 -20 -20 -20 -20 -20 -20 -20 -20 -20 -20 -20 -20 -20 -20 -20 -20 -20 -20 -20 -20 -20 -20 -20 -20
3 -16 -20 -16 -3 12 13 22 -19 -20 -20 -20 -20 -20 -20 -20 -20 -20 -20 -20 -20 -20 -20 -20 -20 -20 -20 -20 -20 -20 -20 -20 -20 -20 -20 -20 -20 -20 -20 -20 -20 -20 -20
8 -16 -20 31 12 35 4 6 -15 -5 -20 -20 -20 -20 -20 -20 -20 -20 -20 -20 -20 -20 -20 -20 -20 -20 -20 -20 -20 -20 -20 -10 -20 -20 -20 -20 -20 -20 -20 -20 -20 -20 -20
7 30 10 36 9 -17 17 25 10 -20 -20 -20 -20 -20 -20 -20 -20 -20 -20 -20 -20 -20 -20 -20 -20 -20 -20 -20 -20 -14 1 2 -20 -20 -20 -20 -20 -20 -20 -20 -20 -20 -20
2 15 4 -14 14 -2 27 -11 -20 -20 -20 -20 -20 -20 -20 -20 -20 -20 -20 -20 -20 -20 -20 -20 -20 -20 -20 -20 -20 2 3 -1 -20 -20 -20 -12 -20 -20 -20 -20 -20 -20 -20
-12 -7 8 19 26 -11 -20 -20 -20 -20 -20 -20 -20 -20 -20 -20 -20 -20 -20 -20 -20 -20 -20 -20 -20 -20 -20 -20 -20 -20 -4 3 -16 -18 -20 -5 -5 1 -20 -20 -20 -6 9

GFSMA_prec_radar_033.txt.gz
Reflectivity
-7 -19 -20 -20 -20 -20 -20 -20 -20 -20 -20 -20 -20 -20 -20 -20 -20 -20 -20 -20 -20 -20 8 6 -19 -20 -20 -20 -20 -20 -20 -20 -20 -20 -20 -20 -18 1 -20 -20 -20 -20 -20
-20 -20 -20 -20 -20 -20 -20 -20 -20 -20 -20 -20 -20 -20 -20 -20 -20 -20 -20 -20 -20 -20 -20 -20 -1 -20 -20 -20 -20 -20 -20 -20 -20 -20 -20 -20 -20 -20 -20 -20 -20 -20 -20
-20 -20 -20 -20 -20 -20 -20 -20 -20 -20 -20 -20 -20 -20 -20 -20 -20 -20 -20 -20 -20 -20 -20 -20 -20 -20 -20 -20 -20 -20 -20 -20 -20 -20 -20 -20 -20 -20 -20 -20 -20 -20 -20
-20 -20 -20 -20 -20 -20 -20 -20 -20 -20 -20 -20 -20 -20 -20 -20 -20 -20 -20 -20 -20 -20 -20 -20 -20 -20 -20 -20 -20 -20 -20 -20 -20 -20 -20 -20 -20 -8 -16 5 6 7 -20
-20 -20 -20 -20 -20 -20 -20 -20 -20 -20 -20 -20 -20 -20 -20 -20 -20 -20 -20 -20 -20 -20 -20 -20 -20 -20 -20 -20 -20 -20 -20 -20 -20 -20 -20 -20 -20 -20 -20 -20 -20 -20 -20
-20 -20 -20 -20 -20 -20 -20 -20 -20 -20 -20 -20 -20 -20 -20 -20 -20 -20 -20 -20 -20 -20 -20 -20 -20 -20 -20 -20 -20 -20 -20 -20 -20 -20 -20 -20 -20 -20 -20 -20 -20 -20 -20
-20 -20 -20 -20 -20 -20 -20 -20 -20 -20 -20 -20 -20 -20 -20 -20 -20 -20 -20 -20 -20 -20 -20 -20 -20 -20 -20 -20 -20 -20 -20 -20 -20 -20 -20 -20 -20 -20 -20 -20 -20 -20 -20
-20 -20 -20 -20 -20 -20 -20 -20 -20 -20 -20 -20 -20 -20 -20 -20 -20 -20 -20 -20 -20 -20 -20 -20 -20 -20 -20 -20 -20 -20 -20 -20 -20 -20 -20 -20 -20 -20 -20 -20 -20 -20 -20
-20 -20 -20 -20 -20 -20 -20 -20 -20 -20 -20 -20 -20 -20 -20 -20 -20 -20 -20 -20 -20 -20 -20 -20 -20 -20 -20 -20 -20 -20 -20 -20 -20 -20 -20 -20 -20 -20 -20 -20 -20 -20 -1
-20 -20 -20 -20 -20 -20 -20 -20 -20 -20 -20 -20 -20 -20 -20 -5 -20 -20 -20 -20 -20 -20 -20 -20 -20 -20 -20 -20 -20 -20 -20 -20 -20 -20 -20 -20 -20 -20 -20 -20 -20 -20 -20
-20 -20 -20 -20 -20 -20 -20 -20 -20 -20 -20 -20 15 10 -14 -20 -20 -20 -20 -20 -20 -20 -20 -20 -20 -20 -20 -20 -20 -20 -20 -20 -20 -20 -20 -20 -20 -20 -20 -20 -20 -20 -20
-4 19 -9 3 4 23 9 -2 9 -18 4 29 -17 19 -6 -20 -20 -20 -20 -20 -20 -20 -20 -20 -20 -20 -20 -20 -20 -20 -20 -20 -20 -20 -20 -20 -20 -20 -20 -20 -20 -20 -20
-5 12 26 32 38 29 24 17 33 25 28 11 19 2 -20 -20 -20 -20 -20 -20 -20 -20 -20 -20 -20 -20 -20 -20 -20 -20 -20 -20 -20 -20 -20 -20 -20 -20 -20 -20 -20 -20 -20
8 42 31 13 -10 -16 4 19 17 24 25 25 20 -18 -3 -17 -20 -20 -20 -20 -20 -20 -20 -20 -20 -20 -20 -20 -20 -20 -20 -20 -20 -20 -20 -20 -20 -20 -20 -20 -20 -20 -20
14 23 5 -20 -20 -20 -17 21 26 33 14 23 -19 -20 -18 -18 -20 -20 -20 -20 -20 -20 -20 -20 -20 -20 -20 -20 -20 -20 -20 -20 -20 -20 -20 -20 -20 -20 -20 -20 -20 -20 -20
-20 -20 -20 -19 -20 -13 11 35 28 20 -8 -19 -20 -20 -15 -20 -20 -20 -20 -20 -20 -20 -20 -20 -20 -20 -20 -20 -20 -20 -20 -20 -20 -20 -20 -20 -20 -20 -20 -20 -20 -20 -19
-20 -20 -20 -20 -20 -15 13 13 -8 14 -19 -20 -20 13 18 -20 -20 -20 -20 -20 -20 -20 -20 -20 -20 -20 -20 -20 -20 -20 -20 -20 -20 -20 -20 -20 -20 -20 -20 -20 -20 -20 -16
-20 -20 -20 -20 -20 13 7 8 21 19 10 -20 11 12 -20 -20 -20 -20 -20 -20 -20 -20 -20 -20 -20 -20 -20 -20 -20 -20 -20 -20 -20 -20 -20 -20 -20 -20 -20 -20 -20 -20 -20
-9 24 14 -2 -13 18 21 0 10 -20 6 4 27 -3 -20 -16 -19 -20 -20 -20 -20 -20 -20 -13 -20 -20 -20 -20 -20 -20 -20 -20 -20 -20 -20 -20 -20 -20 -20 -20 -20 -20 -20
-12 11 5 -7 15 13 6 19 16 -9 27 25 7 18 15 -7 -19 -17 -10 3 -18 -3 -2 14 -3 -20 -20 -20 -20 -20 -20 -20 -20 -20 -20 -20 -20 -20 -20 -20 -20 -20 -20
-20 -20 -20 -20 -8 15 -4 -13 9 19 11 5 -6 -13 -20 -20 -18 -20 -16 -13 13 8 18 5 -20 2 -20 -20 -20 -20 -20 -20 -20 -20 -20 -20 -20 -20 -20 -20 -20 -2 -20
-20 -20 -20 -20 -20 -20 15 17 -20 -20 -8 13 -8 -12 -15 -20 -20 -20 -20 -20 -20 -20 11 7 7 -3 -20 -20 -20 -20 -20 -20 -20 -20 -20 -20 -20 -20 -20 -20 -20 -20 -20
-20 -20 -0 -16 -5 -16 -20 -20 -20 -20 -2 7 -8 -17 -18 -20 -20 -20 -20 -20 -20 -20 -20 -20 3 4 -20 -20 -20 -20 -20 -20 -20 -20 -20 -20 -20 -20 -20 -20 -20 -20 -20
-20 -20 -20 -20 -20 -20 -20 -20 -10 -4 -4 -4 -1 -7 -20 -20 -20 -20 -20 -20 -20 -20 -20 -20 -20 -16 -20 -19 -20 -20 -20 -20 -20 -20 -20 -20 -20 -20 -20 -20 -20 -10 -20
-20 -20 -20 -20 -20 -5 -20 -18 12 -12 -0 -18 -20 -20 -20 -20 -20 -20 -20 -20 -20 -20 -20 -20 -20 -20 -20 -20 -20 -20 -20 -20 -20 -20 -20 -20 -20 -20 -20 -20 -20 -17 7
-20 -20 -20 -20 -8 -20 -20 -20 -20 -20 -20 -20 -20 -20 -20 -20 -20 -20 -20 -20 -20 -20 16 -13 -17 -20 -20 -20 -20 -20 -20 -20 -20 -20 -20 -20 -20 -20 -20 -20 -20 -20 -20

GFSMA_prec_radar_036.txt.gz
Reflectivity
-5 0 -1 1 -17 -20 -20 -20 -20 -20 -20 -20 -20 -20 -20 -20 -20 -20 -20 -20 -20 -3 12 3 8 -20 -20 -20 -20 -20 -20 -20 -20 -20 -20 -20 -20 -20 -20 -20 -20 -20 -20
5 3 -9 -20 -20 -20 -20 -20 -20 -20 -20 -20 -20 -20 -20 -20 -20 -20 -20 -20 -20 -20 -20 -11 9 -4 -20 -20 -20 -20 -20 -20 -20 -20 -20 -20 -20 -20 -20 -20 -20 -20 -20
-7 -10 -20 -20 -20 -20 -20 -20 -20 -20 -20 -20 -20 -20 -20 -20 -20 -20 -20 -20 -20 -20 -20 -20 -20 -20 -20 -20 -20 -20 -20 -20 -20 -20 -20 -20 -20 -20 -20 -19 -20 -17 -20
-20 -20 -20 -20 -20 -20 -20 -20 -20 -20 -20 -20 -20 -20 -20 -20 -20 -20 -20 -20 -20 -20 -20 -20 -20 -20 -20 -20 -20 -20 -20 -20 -20 -20 -20 -20 -20 -20 -20 -20 -20 -20 -20
-20 -20 -20 -20 -20 -20 -20 -20 -20 -20 -20 -20 -20 -20 -20 -20 -20 -20 -20 -20 -20 -20 -20 -20 -20 -20 -20 -20 -20 -20 -20 -20 -20 -20 -20 -20 -20 -20 -20 -20 -20 -20 -20
-20 -20 -20 -20 -20 -20 -20 -20 -20 -20 -20 -20 -20 -20 -20 -20 -20 -20 -20 -20 -20 -20 -20 -20 -20 -20 -20 -20 -20 -20 -20 -20 -20 -20 -20 -20 -20 -20 -20 -20 -20 -20 -20
-5 -20 -20 -20 -20 -20 -20 -20 -20 -20 -20 -20 -20 -20 -20 -20 -20 -20 -20 -20 -20 -20 -20 -20 -20 -20 -20 -20 -20 -20 -20 -20 -20 -20 -20 -20 -20 -20 -20 -20 -20 -20 -20
-11 -20 -20 -20 -20 -20 -20 -20 -20 -20 -20 -20 -20 -20 -20 -20 -20 -20 -20 -20 -20 -20 -20 -20 -20 -20 -20 -20 -20 -20 -20 -20 -20 -20 -20 -20 -20 -20 -20 -20 -20 -20 -20
-20 -20 -20 -20 -20 -20 -20 -20 -20 -20 -20 -20 -20 -20 -20 -20 -20 -20 -20 -20 -20 -20 -20 -20 -20 -20 -20 -20 -20 -20 -20 -20 -20 -20 -20 -20 -20 -20 -20 -20 -20 -20 -20
-20 -10 -20 -20 -20 -20 -20 -20 -20 -20 -7 -20 -20 -20 -20 -13 -4 -6 -20 -20 -20 -20 -20 -20 -20 -20 -20 -20 -20 -20 -20 -20 -20 -20 -20 -20 -20 -20 -20 -20 -20 -20 -20
-20 28 -9 -20 -19 -20 -19 -7 -2 26 15 13 13 -17 1 20 14 -4 -17 2 -4 -20 -20 -20 -20 -20 -20 -20 -20 -20 -20 -20 -20 -20 -20 -20 -20 -20 -20 -20 -20 -20 -20
-20 4 -19 -16 -17 5 26 32 36 29 35 20 24 15 9 30 25 -17 -20 -20 -20 -20 -20 -20 -20 -20 -20 -20 -20 -20 -20 -20 -20 -20 -20 -20 -20 -20 -20 -20 -20 -20 -20
-20 -20 -20 -17 15 26 31 23 14 27 26 21 22 30 33 21 6 -13 -16 -20 -20 -20 -20 -20 -20 -20 -20 -20 -20 -20 -20 -20 -20 -20 -20 -20 -20 -20 -20 -20 -20 -20 -20
-2 -20 -20 -20 -18 9 -1 -20 -20 -20 -14 30 29 27 28 -3 -20 -17 -11 -20 -20 -20 -20 -11 -19 -20 -20 -20 -20 -20 -20 -20 -20 -20 -20 -20 -20 -20 -20 -20 -20 -20 -20
-5 -20 -20 -20 -20 -20 -20 -7 -20 -17 17 6 1 13 -18 -20 -20 13 -18 -20 -20 -20 -20 -20 -20 -20 -20 -20 -20 -20 -20 -20 -20 -20 -20 -20 -20 -20 -20 -20 -20 -20 -20
-2 -0 0 -20 -20 -20 -20 -20 -20 20 -6 30 -7 1 -2 -4 11 -20 -20 -20 -20 -20 -20 -20 -20 -20 -20 -20 -20 -20 -20 -20 -20 -20 -20 -20 -20 -20 -20 -20 -20 -20 -20
15 23 -20 -20 -20 -20 -20 -20 -20 -19 24 -11 -7 30 2 14 -7 -20 -20 -19 -5 -20 -20 -20 -20 -20 -20 -20 -20 -20 -20 -20 -20 -20 -20 -20 -20 -20 -20 -20 -20 -20 -20
-5 -20 -2 -20 -3 -18 -16 -20 -6 -15 5 30 5 -13 4 -4 -20 -20 5 -0 -20 -20 -20 -20 -20 -20 -20 -20 -20 -20 -20 -20 -20 -20 -20 -20 -20 -20 -20 -20 -20 -20 -20
13 -9 -13 1 4 10 14 -1 -15 14 17 0 27 -0 -11 7 -20 -20 -20 -20 -19 -19 -20 -20 -20 -20 -20 -20 -20 -20 -20 -20 -20 -20 -20 -20 -20 -20 -20 -20 -20 -20 -20
-14 -13 -10 -9 -9 5 16 -6 7 6 28 12 -10 9 -10 -10 -20 -20 -20 -19 -19 -15 -18 -13 -19 -20 -20 -20 -13 -20 -20 -20 -20 -20 -20 -20 -20 -20 -20 -20 -20 -20 -15
-15 -20 -13 -8 -10 -19 -20 -12 -20 -4 5 -7 -8 -19 -13 0 -15 -20 -20 -20 -20 3 -13 8 3 -7 -15 -20 -18 -20 -20 -20 -20 -20 -20 -20 -20 -20 -20 -20 -20 -20 -20
-20 -20 -20 -20 -20 -20 10 -20 -5 -20 -19 -20 -20 -20 8 14 -20 -20 -20 -20 -20 -20 -20 -20 -20 -20 -20 13 5 -9 -20 -20 -20 -20 -20 -20 -20 -20 -20 -20 -20 -20 -20
-20 -20 -20 -20 -20 -20 4 -7 -20 -20 -20 -20 -20 -20 -20 -20 -20 -18 -20 -20 -20 -20 -20 -20 -20 -20 -20 -20 17 18 -20 -20 -19 -20 -20 -20 -20 -20 -20 -20 -20 -20 -20
-20 -20 -20 -20 -20 -20 -20 -20 -20 -20 -19 -11 -18 -20 -20 3 -7 -20 -20 -20 -20 -20 -20 -20 -20 -16 0 12 22 17 8 11 -20 -20 -20 -20 -20 -20 -20 -20 -20 -20 -20
-20 -20 -20 -20 -20 -20 -1 -16 -9 1 -19 -18 -17 -20 -20 -20 -20 -20 -20 -20 -20 -20 -20 -20 -20 -18 3 -20 13 11 -7 9 -0 -20 -20 -20 -20 -20 -20 -20 -20 -20 -20
-20 -20 -20 -20 -20 -20 -1 -16 -20 -20 -20 -20 -20 -20 -20 -20 -20 -20 -20 -20 -20 -20 -20 -20 -14 -20 -20 14 -18 -8 8 0 -20 -20 -20 -20 -20 -20 -20 -20 -20 -20 -20

GFSMA_prec_radar_042.txt.gz
Reflectivity
-20 -20 -20 -20 -20 -20 -20 -20 -20 -20 -16 -10 -20 -20 -20 -20 -20 -20 -20 -20 -20 -20 4 1 -14 13 4 -20 -20 -20 -20 -20 -20 -20 -20 -20 -20 -20 -20 -20 -20 -20 -20
-20 -20 -20 -20 -20 -20 -20 -20 -20 -20 -20 -20 -20 -20 -20 -20 -20 -20 -20 -20 -20 -20 -20 3 -7 -13 -13 -20 -20 -20 -20 -20 -20 -20 -20 -20 -20 -20 -20 -20 -20 -20 -20
-20 -20 -20 -20 -20 -20 -20 -20 -20 -20 -20 -20 -20 -20 -20 -20 -20 -20 -20 -20 -20 -20 -20 -20 -20 -20 -20 -20 -20 -20 -20 -20 -20 -20 -20 -20 -20 -20 -20 -20 -20 -20 -20
-20 -20 -20 -20 -20 -20 -20 -20 -20 -20 -20 -20 -20 -20 -20 -20 -20 -20 -20 -20 -20 -20 -20 -20 -20 -20 -20 -20 -20 -20 -20 -20 -20 -20 -20 -20 -20 -20 -20 -20 -20 -20 -20
-13 -20 -20 -20 -20 -20 -20 -20 -20 -20 -20 -20 -20 -20 -20 -20 -20 -20 -20 -20 -20 -20 -20 -20 -20 -20 -20 -20 -20 -20 -20 -20 -20 -20 -20 -20 -20 -20 -20 -20 -20 -20 -20
-20 -20 -20 -20 -20 -20 -20 -20 -20 -20 -20 -20 -20 -20 -20 -20 -20 -20 -20 -20 -20 -20 -20 -20 -20 -20 -20 -20 -20 -20 -20 -20 -20 -20 -20 -20 -20 -20 -20 -20 -20 -20 -20
-20 -20 -20 -20 -20 -20 -20 -20 -20 -20 -20 -20 -20 -20 -20 -20 -20 -20 -20 -20 -20 -20 -20 -20 -20 -20 -20 -20 -20 -20 -20 -20 -20 -20 -20 -20 -20 -20 -20 -20 -20 -20 -20
-20 -20 -20 -20 -20 -20 -20 -20 -20 -20 -20 -20 -20 -20 -20 -20 -20 -20 -20 -20 -20 -20 -20 -20 -20 -20 -20 -20 -20 -20 -20 -20 -20 -20 -20 -20 -20 -20 -20 -20 -20 -20 -20
-20 -20 -20 -20 -20 -20 -20 -20 -20 -20 -20 -20 -20 -20 -20 -20 -20 -20 -20 -20 -20 -20 -20 -20 -20 -20 -20 -20 -20 -20 -20 -20 -20 -20 -20 -20 -20 -20 -20 -20 -20 -20 -20
-20 -20 -20 -20 -20 -20 -20 -20 -20 -20 -20 -3 10 30 16 13 -7 -10 -20 -20 -20 -20 -20 -20 -20 -20 -20 -20 -20 -20 -20 -20 -20 -20 -20 -20 -20 -20 -20 -20 -20 -20 -20
-20 -20 -20 -20 -20 -17 24 13 10 -20 -20 -20 -1 8 -13 -17 -20 -0 -0 -10 -9 -20 -14 -20 -20 -20 -20 -20 -20 -20 -20 -20 -20 -20 -20 -20 -20 -20 -20 -20 -20 -20 -20
-20 -20 -20 -20 13 26 26 13 23 -20 -12 -20 -20 -20 -20 -20 -20 -4 -4 -11 -20 -14 -20 -20 -20 -20 -20 -20 -20 -20 -20 -20 -20 -20 -20 -20 -20 -20 -20 -20 -20 -20 -20
-20 -20 -7 31 24 -7 29 15 -2 -18 -20 -20 -20 -20 -20 -16 -11 -20 -5 -18 -20 -20 -20 -20 -20 -19 -20 -20 -20 -20 -20 -20 -20 -20 -20 -20 -20 -20 -20 -20 -20 -20 -20
-14 -20 29 25 26 22 11 26 3 16 -20 -20 -20 -20 -20 -7 3 -14 7 -13 10 -19 -20 -20 -20 -20 -20 -20 -20 -20 -20 -20 -20 -20 -20 -20 -20 -20 -20 -20 -20 -20 -20
-2 13 31 25 19 28 29 20 27 -20 -20 -20 -17 -20 -11 -1 -20 10 -10 -11 12 -12 -19 -20 -20 -20 -20 -20 -20 -20 -20 -20 -20 -20 -20 -20 -20 -20 -20 -20 -20 -20 -20
-4 26 37 27 20 16 17 13 14 -20 -20 -20 17 2 9 6 15 8 6 16 20 7 -12 -20 -20 -20 -20 -20 -20 -20 -20 -20 -20 -20 -20 -20 -20 -20 -20 -20 -20 -20 -20
29 40 21 15 22 4 -1 -13 -20 -20 -5 17 25 20 -9 -7 -5 -20 -19 12 15 -5 -20 -20 -20 -20 -20 -20 -20 -20 -20 -20 -20 -20 -20 -20 -20 -20 -20 -20 -20 -20 -20
39 39 18 23 24 4 -16 14 19 5 2 18 0 6 -3 10 -20 5 22 14 -19 -20 -8 -20 -20 -20 -20 -20 -20 -20 -20 -20 -20 -20 -20 -20 -20 -20 -20 15 2 -18 -20
42 17 14 10 13 16 14 12 14 17 14 -10 -20 -20 -6 8 5 15 5 0 -13 -19 -20 -20 -20 -20 -20 -20 -20 -20 -20 -16 9 22 12 18 30 9 -20 -20 -20 -20 -20
-3 30 2 23 -2 11 12 1 -10 -18 -18 -20 -15 -12 -4 8 -5 -3 -20 -13 -20 -20 -20 -20 -20 -20 -20 -20 -20 -20 -20 -20 -20 -9 4 -20 1 -20 7 -4 -20 10 -20
-1 15 21 24 11 -9 1 -19 -8 7 14 -18 -6 -19 -4 -14 14 10 -14 -20 -20 -20 -20 -20 -20 -20 -20 -20 -20 -20 -3 -3 -20 -20 -20 -20 15 18 -16 -20 3 25 4
14 15 15 2 -13 10 19 16 3 -20 -17 -1 -20 4 -5 7 3 1 -20 -20 -20 -20 -20 -20 -20 -20 -20 -20 -20 -12 -20 -1 -8 -20 -20 -20 -20 -20 -20 -20 -12 20 12
-2 -7 -5 11 12 12 13 -12 -11 -16 -12 -20 -20 -7 -14 -20 -20 -20 -20 -20 -20 -20 -20 -20 -20 -20 -20 -20 -19 -20 -20 7 4 -16 -16 -17 -20 -20 -20 -20 -8 21 -6
-20 -20 -20 -20 -14 -15 1 -20 -20 -20 -20 -20 -20 -20 -20 -20 -20 -20 -20 -20 -20 -20 -20 -20 -20 -20 -20 -20 -20 -20 -20 -20 -20 -16 -9 8 -20 -20 16 15 -4 -12 -20
-20 -20 -20 -20 -20 -20 -20 -20 -20 -20 -20 -20 -20 -20 -20 -20 -20 -20 -20 -20 -20 -20 -20 -20 -20 -20 -20 -20 -20 -20 -20 -20 -20 -20 -17 3 -20 -17 21 7 15 -20 -20
-20 -20 -20 -20 -20 -20 -20 -20 -18 -20 -20 -20 -20 -20 -20 -20 -20 -20 -20 -20 -20 -20 -20 -20 -20 -20 -20 -20 -20 -20 -18 -2 -9 -4 -20 5 -20 -4 26 -10 -17 -20 -20

GFSMA_prec_radar_045.txt.gz
Reflectivity
-20 -20 -20 -20 -20 -20 -20 -20 -20 -20 -20 -20 -20 -19 -14 -20 -20 -20 -20 -20 -20 2 5 -20 -18 -20 -20 -20 -20 -20 -20 -20 -20 -20 -20 -20 -20 -20 -20 -20 -20 -20 -20
-20 -20 -20 -20 -18 -20 -20 -20 -20 -20 -20 -20 -20 -20 -20 -20 -20 -19 -20 -20 -20 -20 6 2 -10 -8 -20 -20 -20 -20 -20 -20 -20 -20 -20 -20 -20 -20 -20 -20 -20 -20 -20
-20 -20 -19 -20 -20 -20 -20 -20 -20 -20 -20 -20 -20 -20 -20 -20 -20 -20 -20 -20 -20 -20 -20 -20 -20 -20 -20 -20 -20 -20 -20 -20 -20 -20 -20 -20 -20 -20 -20 -20 -20 -20 -20
-20 -20 -18 -20 -20 -20 -20 -20 -20 -20 -20 -20 -20 -20 -20 -20 -20 -20 -20 -20 -20 -20 -20 -20 -20 -20 -20 -20 -20 -20 -20 -20 -20 -20 -20 -20 -20 -20 -20 -20 -20 -20 -20
-20 -9 -20 -20 -20 -20 -20 -20 -20 -20 -20 -20 -20 -20 -20 -20 -20 -20 -20 -20 -20 -20 -20 -20 -20 -20 -20 -20 -20 -20 -20 -20 -20 -20 -20 -20 -20 -20 -20 -20 -20 -20 -20
-20 -20 -20 -20 -20 -20 -20 -20 -20 -20 -20 -20 -20 -20 -20 -20 -20 -20 -20 -20 -20 -20 -20 -20 -20 -20 -20 -20 -20 -20 -20 -20 -20 -20 -20 -20 -20 -20 -20 -20 -20 -20 -20
-20 -20 -20 -20 -20 -20 -20 -20 -20 -20 -20 -20 -20 -20 -20 -20 -20 -20 -20 -20 -20 -20 -20 -20 -20 -20 -20 -20 -20 -20 -20 -20 -20 -20 -20 -20 -20 -20 -20 -20 -20 -20 -20
-20 -20 -20 -20 -20 -20 -20 -20 -20 -20 -20 -20 -20 -20 -20 -20 -20 -20 -20 -20 -20 -20 -20 -20 -20 -20 -20 -20 -20 -20 -20 -20 -20 -20 -20 -20 -20 -20 -20 -20 -20 -20 -20
-20 -20 -20 -20 -20 -20 -20 -20 -20 -20 -20 -20 -20 -20 -15 -20 -20 -19 -20 -20 -20 -16 -20 -20 -15 -20 -20 -20 -20 -20 -20 -20 -20 -20 -20 -20 -20 -20 -20 -20 -20 -20 -20
-20 -20 -20 -20 -20 -20 -20 -20 -20 -20 14 -20 -20 -14 -20 9 -20 -13 -15 -20 -7 -15 -20 -9 -18 -20 -20 -20 -20 -20 -20 -20 -20 -20 -20 -20 -20 -20 -20 -20 -20 -20 -20
-20 -20 -20 -20 -20 20 -20 -20 17 22 15 5 -20 -20 -20 -19 -20 -20 3 -20 -10 -16 -10 -13 -9 -11 -20 -20 -20 -20 -20 -20 -20 -20 -20 -20 -20 -20 -20 -20 -20 -20 -20
-20 -20 -20 -20 -20 6 -20 -12 22 23 15 20 -5 -20 -20 -20 -20 -19 -16 -20 -20 -20 -20 -20 -20 -20 -20 -20 -20 -20 -20 -20 -20 -20 -20 -20 -20 -20 -20 -20 -20 -20 -20
-20 -20 -20 -20 -20 -20 27 5 18 28 21 19 -20 -20 -20 -20 -20 22 0 -10 -20 -20 -20 -20 -20 -20 -20 -20 -20 -15 4 -17 -20 -20 -20 -20 -20 -20 -20 -20 -20 -20 -20
-16 -20 -20 -20 -20 3 27 28 33 27 29 20 16 -20 -2 -10 -20 9 -19 8 -20 -20 -20 -20 -19 -20 -20 -20 -20 -20 -20 -20 -20 -20 -20 -20 -20 -20 -20 -20 -20 -20 -20
-5 -9 -19 -20 1 37 37 36 29 33 14 1 -20 -10 -2 9 24 1 14 -19 -16 -7 -11 -20 3 -20 -20 -20 -20 -20 -20 -20 -20 -20 -20 -20 -20 -20 -20 -20 -20 -20 -20
-20 22 24 21 22 41 33 26 29 2 6 0 3 15 4 13 -7 10 -20 -20 -17 -16 -18 -18 -14 -20 -20 -20 -20 -20 -20 -20 -20 -20 -20 -20 -20 -20 -20 -20 -20 -20 -20
-20 25 23 28 16 35 31 22 9 8 -12 -20 -20 15 22 7 23 23 13 -9 -20 -19 12 6 2 -20 -20 -20 -20 -20 -20 -20 -20 -20 -20 -20 -20 -20 -20 -14 9 4 5
38 36 31 44 31 20 16 -0 2 -12 -19 -20 -8 22 4 28 7 1 -9 6 -0 9 11 4 -16 -20 -20 -20 -20 -20 -20 -20 -20 -20 -20 -20 -20 -20 -20 -11 21 2 29
4 -15 1 20 18 8 6 -2 15 -17 -16 12 11 26 22 8 -2 -20 -18 1 -5 -3 -6 -9 -20 -20 -20 -20 -20 -20 -20 -20 -20 -20 -20 -20 -20 -20 9 20 7 -15 -13
-19 -20 -17 -12 -12 -20 -19 21 13 14 14 19 20 8 -4 -20 -20 -8 3 4 -2 -17 -20 -20 -20 -20 -20 -20 -20 -20 -20 -20 -20 -20 -20 -20 -20 -20 -20 -20 -20 -20 8
10 -16 -20 -20 -20 3 15 24 13 9 14 7 -17 3 -10 -2 14 8 -4 -17 -20 -20 -20 -20 -20 -20 -20 -20 -20 -20 -20 -20 -20 -20 -20 -20 -20 -20 -20 -20 -20 -20 8
-13 27 -15 16 24 20 27 16 10 -8 -20 -12 1 -20 -14 20 7 -3 10 1 -20 -20 -20 -20 -20 -20 -20 -20 -20 -20 -20 -20 -20 -20 3 -20 -16 -20 -20 -2 -20 -20 -20
7 7 2 -2 15 12 18 8 10 -20 3 -4 -17 -6 4 -7 4 5 2 -18 -20 -20 -20 -20 -20 -20 -20 -20 -20 -20 -20 -20 -20 -20 -20 -20 -20 -20 -20 -20 -20 -20 -20
-5 -15 6 8 9 5 -3 -10 13 -14 -20 -20 -18 -14 -19 -18 -8 -14 -20 -20 -20 -20 -20 -20 -20 -20 -20 -20 -20 -20 -20 -20 -20 -20 -20 -20 -20 -20 -20 -20 -20 -20 -12
-20 -19 -20 -20 -11 -6 14 11 10 -20 -20 -20 -20 -20 -20 -20 -8 -20 -20 -20 -20 -20 -20 -20 -20 -20 -20 -20 -20 -20 -19 -3 -10 -20 -20 3 -20 -20 -20 -20 -20 -20 5
-20 -20 -20 -20 7 -16 15 10 1 -20 -20 -20 -20 -20 -6 -19 -20 -20 -20 -20 -20 -20 -20 -20 -20 -20 -20 -20 -20 -20 -20 -20 -20 -20 -20 -20 -20 7 3 -20 -20 -20 26

GFSMA_prec_radar_048.txt.gz
Reflectivity
-14 -20 -20 -20 -20 -20 -20 -20 -20 -20 -20 -20 -20 -20 -20 -20 -20 -20 -20 -20 -20 -20 -6 -4 -5 -6 -20 -20 -20 -20 -20 -20 -20 -20 -20 -20 -20 -20 -20 -20 -20 -20 -20
-20 -20 -20 -20 -20 -20 -20 -20 -20 -20 -20 -20 -20 -20 -20 -20 -20 -20 -20 -20 -20 -11 10 3 9 15 -1 -20 -20 -20 -20 -20 -20 -20 -20 -20 -20 -20 -20 -20 -20 -20 -20
-20 -20 -20 -20 -18 -20 -20 -20 -20 -20 -20 -20 -20 -20 -20 -20 -20 -20 -20 -20 -20 -20 8 -11 -20 -20 -20 -20 -20 -20 -20 -20 -20 -20 -20 -20 -20 -20 -20 -20 -20 -20 -20
-20 -20 -13 -15 -20 -20 -20 -20 -20 -12 -20 -20 -20 -20 -20 -20 -20 -20 -20 -20 -20 -20 -20 -19 -20 -20 -20 -20 -20 -20 -20 -20 -20 -20 -20 -20 -20 -20 -20 -20 -20 -20 -20
-19 4 -2 -10 -12 -20 -20 -20 -20 -20 -20 -20 -20 -20 -20 -20 -20 -20 -20 -20 -20 -20 -20 -20 -20 -20 -20 -20 -20 -20 -20 -20 -20 -20 -20 -20 -20 -20 -20 -20 -20 -20 -20
2 -5 -5 5 -14 -20 -20 -20 -20 -20 -20 -20 -20 -20 -20 -20 -20 -20 -20 -20 -20 -20 -20 -20 -20 -20 -20 -20 -20 -20 -20 -20 -20 -20 -20 -20 -20 -20 -20 -20 -20 -20 -20
5 -17 4 27 -20 -20 -20 -20 -20 -20 -20 -20 -20 -20 -20 -20 -20 -20 -20 -20 -20 -20 -20 -20 -20 -20 -20 -20 -20 -20 -20 -20 -20 -20 -20 -20 -20 -20 -20 -20 -20 -20 -20
10 -19 -11 26 -20 -20 -20 -20 -20 -20 -20 -20 -20 -20 -20 -20 -20 -20 -20 -20 -20 -20 -20 -18 -20 -20 -20 -18 -20 -20 -20 -20 -20 -20 -20 -20 -20 -20 -20 -20 -20 -20 -20
-11 -20 7 -20 -20 -20 -20 -20 -20 -20 -20 -20 -20 -20 -20 -20 -20 -20 -20 -20 -20 -20 -20 7 -9 -20 -20 -13 -0 -20 -20 -20 -20 -20 -20 -20 -20 -20 -20 -20 -20 -20 -20
-20 -20 -20 -20 -20 -20 -20 -20 -20 -20 -20 -20 -20 -20 -20 -20 -20 -20 -20 -20 -20 -6 -20 -17 -14 -14 -20 -20 12 12 -3 -20 -20 -20 -20 -20 -20 -20 -20 -20 -20 -20 -20
-20 -20 -20 -20 -20 -20 -20 -20 -20 -20 -20 -20 -18 10 -11 13 -20 -20 -19 4 -20 -20 -20 -20 -20 -20 -20 -20 -20 7 -2 -20 -20 -20 -20 -20 -20 -20 -20 -20 -20 -20 -20
-20 -20 -20 -20 -20 -20 -20 -20 -20 -20 24 17 14 14 13 19 -20 1 8 -6 -20 13 -6 -20 -20 -20 -12 -20 5 -20 0 -20 -3 -8 -5 -11 -20 -20 -20 -20 -20 -20 -20
-20 -20 -20 -20 -20 -20 -20 -20 -20 21 13 18 32 14 16 14 -20 -20 -10 1 9 -11 -20 -20 -20 -20 -20 -16 -12 -15 -13 -19 7 -0 -12 -20 -20 -20 -20 -20 -20 -20 -20
-20 -20 -20 -20 -20 -20 -20 -20 -20 15 22 11 32 33 29 -1 -9 7 -10 13 -18 -8 -19 -17 -20 -14 -15 -20 17 -2 -12 -18 -13 -20 -20 -20 -20 -20 -20 -20 -20 -20 -20
-20 -20 -20 -20 -20 -20 -20 -20 -20 26 25 30 35 31 -8 -20 -15 -20 1 12 4 -5 6 -19 -20 -17 -20 -20 0 -10 -12 -20 -20 -20 -20 -20 -20 -20 -20 -20 -20 -20 -20
-20 -20 -20 -20 -20 2 4 26 2 23 35 31 22 -12 5 2 -8 2 -13 19 1 18 10 -6 -20 -20 -20 -20 -19 -20 -20 -20 -20 -20 -20 -20 -20 -20 -20 -20 -20 -20 -20
-19 -20 -20 -20 -14 -5 31 36 42 23 34 27 24 23 11 1 18 5 -3 17 9 16 -17 -13 -19 -18 -20 -20 -20 -20 -15 -20 -20 -20 -20 -20 -20 -20 -20 -20 -20 -20 -17
-19 3 16 16 31 22 21 24 34 8 18 28 23 0 -20 -20 -18 22 15 -11 19 9 -20 -20 -20 -16 -19 -20 -20 -20 -20 -20 -20 -20 -20 -20 -20 -20 -20 -20 -20 -20 -20
-12 30 14 26 13 -20 -20 -11 -11 -10 -11 -20 13 18 -19 4 19 3 19 5 -2 -20 -20 -12 3 -20 -20 -20 -20 -20 -20 -20 -20 -20 -20 -20 -20 -20 -20 -20 -20 -20 -20
-20 -2 14 23 22 13 -15 -20 -20 -19 -20 7 -3 -1 13 8 2 -3 -7 -11 -20 -20 -20 -20 -19 -20 -20 -20 -20 -20 -20 -20 -20 -20 -20 -20 -20 -20 -20 -20 -20 -20 4
-5 27 -8 -8 -19 -20 -1 -20 -20 -19 6 6 -10 11 22 18 17 11 -5 -20 -20 -8 -9 -20 -20 -20 -20 -20 -20 -20 -20 -20 -20 -20 -20 -20 -20 -20 -20 -20 -20 -20 -20
-20 25 31 -20 -20 26 -3 18 -5 20 1 17 18 11 -0 10 -19 6 6 13 17 7 -20 -20 -20 -20 -20 -20 -20 -20 -20 -20 -20 -20 -20 -20 -20 -20 -20 -20 -20 -20 -20
25 -20 6 8 6 28 28 -0 23 10 20 17 -5 -15 -20 4 17 -0 17 21 1 -20 -4 -18 -20 -20 -20 -20 -20 -20 -20 -20 -20 -20 -19 -20 -20 -20 -20 -20 -20 -20 -20
23 -15 -16 -7 25 16 21 22 19 3 -7 -2 -15 -8 8 -0 7 19 8 -6 -20 -13 -20 -20 -20 -20 -20 -20 -20 -20 -12 -20 -20 -20 -20 -5 -20 -20 -20 -20 -20 -20 -20
14 24 15 21 14 17 20 13 11 -19 -15 7 3 10 7 11 16 14 -5 -16 -19 -20 -20 -20 -20 -20 -20 -20 -20 -20 -20 -8 -20 -20 -20 -20 -20 -20 -20 -20 -20 -20 -20
18 22 13 19 21 13 21 13 6 -20 -15 -7 5 15 20 9 11 6 -5 -20 -20 -20 -6 -12 -18 -9 -6 -10 -14 -20 -20 -20 -20 -20 -20 -20 -20 -19 -6 -20 -20 -20 -20

GFSMA_prec_radar_051.txt.gz
Reflectivity
-19 -20 -20 -20 -20 -20 -20 -20 -20 -20 -20 -20 -20 -20 -20 -20 -20 -20 -20 -19 -20 -20 -19 3 -1 -20 -20 -20 -20 -20 -20 -20 -20 -20 -20 -20 -20 -20 -20 -20 -20 -20 -20
-15 -17 -20 -20 -20 -20 -20 -20 -20 -20 -20 -20 -20 -20 -20 -20 -20 -20 -20 -20 -20 -2 3 -20 -20 -19 -16 -20 -20 -20 -20 -20 -20 -20 -20 -20 -20 -20 -20 -20 -20 -20 -20
-8 -20 -20 -20 -20 -20 -20 -20 -20 -20 -20 -20 -20 -20 -20 -20 -20 -20 -20 -20 -20 -20 5 -2 -20 -20 -20 -20 -20 -20 -20 -20 -20 -20 -20 -20 -20 -20 -20 -20 -20 -20 -20
-20 -20 -20 -20 -19 -20 -20 -20 -20 -20 -20 -20 -20 -20 -20 -20 -20 -20 -20 -20 -20 -20 -20 -20 -20 -20 -12 -20 -20 -20 -20 -20 -20 -20 -20 -20 -20 -20 -20 -20 -20 -20 -20
-20 -20 -20 -20 -20 -20 -20 -20 -20 -20 -20 -20 -20 -20 -20 -20 -20 -20 -20 -20 -20 -20 -20 -20 -20 -20 -20 -20 -20 -20 -20 -20 -20 -20 -20 -20 -20 -20 -20 -20 -20 -20 -20
-20 -20 -20 -20 -20 -20 -20 -20 -20 -20 -20 -20 -18 -20 -20 -20 -20 -20 -20 -20 -20 -20 -20 -20 -20 -20 -20 -20 -20 -20 -20 -20 -20 -20 -20 -20 -20 -20 -20 -20 -20 -20 -20
-20 -20 -20 -20 -20 -20 -14 -19 -20 -20 -20 -20 -20 -20 -20 -20 -20 -20 -20 -20 -20 -20 -20 -20 -20 -20 -20 -20 -20 -20 -20 -20 -20 -20 -20 -20 -20 -20 -20 -20 -20 -20 -20
-20 -20 -20 -20 -20 -20 -11 -20 -20 -20 -20 -20 -20 -20 -20 -20 -20 -20 -20 -20 -20 -20 -20 -20 -20 -20 -19 -20 -20 -20 -20 -11 -20 -20 -20 -20 -20 -20 -20 -20 -20 -20 -20
-18 -20 -20 -20 -20 -12 -20 -20 -20 -20 -20 -20 -20 -20 -20 -20 -20 -20 -20 -20 -20 -20 -20 -20 -20 -20 -20 -20 -20 -20 -14 -9 3 -18 -20 -20 -20 -20 -20 -20 -20 -20 -20
-20 -13 -19 -20 -20 -6 -20 11 -20 -20 -20 -20 -20 -20 -20 -20 4 -20 -7 -20 -20 -20 -20 -20 -20 -20 -20 -20 -20 -20 -20 -20 -20 -17 -20 -20 -20 -20 -20 -20 -20 -20 -20
-20 -20 -20 -20 -20 -20 -20 -20 -20 -20 -20 -20 -20 -20 2 -20 -19 -19 14 -0 -3 -9 -20 -20 -20 -18 -20 -20 -20 -20 -20 -20 -20 -20 -20 -20 -20 -8 10 11 4 8 -10
-20 -20 -20 -20 -20 -20 -20 -20 -20 -18 -20 -0 -20 8 -20 -20 5 -11 13 23 15 7 -18 -17 -19 -20 -20 -20 -20 -10 -11 -19 -20 -20 -20 -20 -20 -20 -20 6 13 16 15
-20 -20 -20 -20 -20 -20 -20 -20 -20 -20 6 -20 -20 -20 5 -8 12 11 14 -4 -6 -18 6 8 -20 -9 -16 -8 -17 8 -18 -20 -12 -16 -20 -20 -20 -20 -20 -20 -20 -1 13
-20 -20 -20 -20 -20 -20 -20 -20 -20 -20 -20 -20 -20 -20 -7 16 16 36 35 20 5 14 15 1 17 19 14 -14 0 -3 -20 -20 -20 -20 -18 -20 -20 -20 -20 -20 -20 -20 -20
-20 -20 -20 -20 -20 -20 -20 -20 -20 -20 -20 -20 -20 -15 -13 4 33 32 21 18 20 -12 2 20 16 -20 -18 -14 -17 -20 -20 18 5 13 -19 -20 -20 -20 -20 -20 -20 -20 -20
-20 -20 -20 -20 -20 -20 -20 -20 -20 -20 -20 -16 9 22 19 29 31 19 -7 12 9 16 4 -17 10 -14 16 13 -20 -20 -20 -20 -20 -17 -20 -20 -20 -20 -20 -20 -20 -20 -20
-16 0 1 -20 -20 -20 -20 -20 -20 -20 -20 1 32 34 35 27 25 27 23 10 -12 21 -11 23 -19 -12 11 -16 -20 -20 -20 -20 -20 -20 -20 -20 -20 -20 -20 -20 -20 -20 -20
-20 13 3 -17 8 -20 -20 -20 -5 2 7 36 32 32 28 26 22 16 8 17 12 14 -3 5 26 1 -20 -20 -18 -20 -20 -20 -20 -20 -20 -20 -20 -20 -20 -20 -20 -20 -20
-20 -20 -20 -20 -18 -16 -5 11 -17 -20 -3 36 17 1 -4 12 22 13 -10 5 -11 17 8 22 -4 -1 -20 -20 -20 -20 -20 -20 -20 -20 -20 -20 -20 -20 -20 -20 -20 -20 -20
-20 -20 -20 -20 -20 -20 -7 -2 -19 -17 23 -20 -19 -20 -10 11 22 -2 11 19 23 16 3 10 7 -20 -19 -20 -20 -20 -20 -20 -20 -20 -20 -20 -20 -20 -20 -20 -20 -20 -20
-20 -20 -20 -8 -20 -20 -16 -18 -20 -20 -20 -20 -20 -16 7 17 19 12 13 -1 8 12 7 -15 -20 -13 -9 -20 -20 -20 -20 -20 -20 -20 -20 -20 -20 -20 -20 -20 -20 -20 -20
-20 -20 9 -20 10 3 -3 -20 -13 8 -2 -20 -20 -20 18 15 15 14 9 6 -16 -20 -20 -20 -20 -20 -20 -20 -20 -20 -20 -20 -20 -20 -20 -20 -20 -20 -20 -20 -20 -20 -20
-18 4 3 -20 15 8 4 -1 18 10 3 25 17 12 13 10 18 -15 2 8 2 8 7 1 -16 -20 -20 -20 -20 -20 -20 -20 -20 -20 -20 -20 -20 -20 -20 -20 -20 -20 -20
-10 -3 -16 -12 -20 -11 15 15 14 9 8 8 17 14 11 11 5 -14 -6 11 -3 3 0 -10 -19 -20 -20 -20 -20 -20 -20 -20 -20 -20 -20 -20 -20 -20 -20 -20 -20 -20 -20
-20 -10 12 14 20 12 21 14 11 -6 -6 13 15 15 7 -18 9 10 5 -5 -6 -11 6 -19 -20 -20 -20 -20 -20 -20 -20 -20 -20 -20 -20 -20 -20 -20 -20 -20 -20 -20 -20
3 4 6 20 23 16 23 20 14 -3 6 10 -4 -5 16 11 15 12 0 -7 -15 -16 -19 -20 -20 -20 -20 -20 -20 -20 -20 -20 -20 -20 -20 -20 -20 -20 -20 -20 -20 -20 -20

GFSMA_prec_radar_057.txt.gz
Reflectivity
8 14 13 10 -19 -16 -20 -20 -20 -20 -20 -20 -20 -20 -20 -20 -20 -20 -20 -20 -6 -17 -20 -20 -20 -20 -20 -20 -20 -20 -20 -20 -20 -20 -20 -20 -20 -20 -20 -20 -20 -20 -20
11 14 14 -8 -20 -20 -20 -20 -20 -20 -20 -20 -20 -20 -20 -20 -20 -20 -20 -20 -20 -20 -13 1 -20 -20 -20 -20 -20 -20 -20 -20 -20 -20 -20 -20 -20 -20 -20 -20 -20 -20 -20
-9 13 -5 -5 -20 -20 -20 -20 -20 -20 -20 -20 -20 -20 -20 -20 -20 -20 -20 -20 -20 -20 -20 -18 -20 -20 -20 -20 -20 -20 -20 -20 -20 -20 -20 -20 -20 -20 -20 -20 -20 -20 -20
13 12 -20 -20 -20 -20 -20 -20 -20 -20 -20 -20 -20 -20 -20 -20 -20 -20 -20 -20 -20 -20 -20 -12 -14 -20 -20 -20 -20 -20 -20 -20 -20 -20 -20 -20 -20 -20 -20 -20 -20 -20 -20
26 14 -5 -20 -20 -20 -20 -20 -20 -20 -20 -20 -20 -20 -20 -20 -20 -20 -20 -20 -20 -20 -20 -20 -20 -20 -20 -20 -20 -20 -20 -20 -20 -20 -20 -20 -20 -20 -20 -20 -20 -20 -20
25 12 12 17 5 6 -18 -20 -20 -20 -20 -20 -20 -20 -20 -20 -20 -20 -20 -20 -20 -20 -20 -1 -20 -20 -20 -4 -20 -20 -20 -20 -20 -20 -20 -20 -20 -20 -20 -20 -20 -20 -20
14 1 2 25 13 11 -18 -20 -20 -20 -20 -20 -20 -20 -20 -20 -20 -20 -20 -20 -20 -20 -20 -20 -20 -20 -20 -20 -20 -20 -20 -20 -20 -20 -20 -20 -20 -20 -20 -20 -20 -20 -20
16 7 13 12 24 12 -9 -20 -20 -20 -20 -20 -20 -20 -20 -20 -20 -20 -20 -20 -20 -20 -20 -20 -20 -20 -20 -20 -20 -20 -20 -20 -20 -17 -1 -20 -20 -20 -20 -20 -20 -20 -20
-15 -19 12 18 17 -16 -20 -20 -20 -20 -20 -20 -20 -20 -20 -20 -20 -20 -20 -20 -20 -20 -20 -20 -20 -20 -20 -20 1 -20 -20 -20 -20 -20 -20 -20 -20 -20 -20 -20 -20 -20 -20
-20 12 5 -19 -19 -20 -20 -20 -20 -20 -20 -20 -20 -20 -20 -20 -20 24 -10 -20 -20 -20 -20 -20 -20 -20 -20 -20 -20 -20 -20 -20 -20 -20 -20 -20 -20 0 -8 -20 -3 -3 -7
-17 -17 -3 -20 -20 -20 -20 -20 -20 -20 -20 -20 -20 -20 -20 -20 -20 -20 2 -17 -20 -20 -20 -20 -2 -18 4 -18 -19 -19 3 -20 -20 -20 -20 -20 -20 -20 3 12 13 17 13
1 25 7 -20 -20 -20 -20 -20 11 -13 -20 -9 31 -20 -12 -20 5 21 8 -1 25 -6 -20 -20 -20 3 4 18 25 24 14 -20 -17 -20 -20 -20 -20 -20 -20 -20 -20 -6 -2
-20 7 -20 19 -20 -20 -20 -20 -20 -18 -3 -20 9 12 26 -20 -20 -16 17 -20 13 -20 -20 -20 -20 10 -1 22 31 31 23 24 6 -3 -19 -20 -20 -20 -20 -20 -20 -20 -20
-20 -20 -20 -20 -20 -20 -20 -20 -15 -1 -20 -3 -20 -16 3 25 -20 -20 -4 17 -20 -20 -20 -20 -20 -20 -10 -2 28 25 28 18 18 8 -10 -9 -6 -20 -20 -20 -20 -20 -20
-20 -20 -20 -20 -20 -20 -20 10 -15 14 -20 -16 -20 -20 20 -20 -20 15 1 -20 -20 -20 -20 -20 12 -5 -3 23 26 25 23 30 11 -2 -20 -20 -20 -20 -20 -20 -20 -20 -20
-20 -20 -20 -20 -20 -20 -20 -20 -20 -20 -5 -20 -20 -20 -20 -20 -20 16 10 4 -20 -17 -6 -20 -17 -1 -6 28 19 28 18 17 13 -8 9 15 -20 -20 -20 -20 -20 -20 -20
-20 -20 -20 -20 -20 -20 -20 -20 -20 -20 -20 -20 -20 -18 -11 12 11 -8 -13 -20 -20 -20 2 2 -19 -17 -3 -2 25 31 21 -5 -13 13 17 -20 -20 -20 -20 -20 -20 -20 -20
-20 -20 -20 -20 -20 -20 -20 -20 -20 -20 -20 -20 -20 11 -20 -20 18 -10 2 -20 -19 29 21 14 -2 6 7 0 34 -19 7 -19 -20 14 -15 -20 -20 -20 -20 -20 -20 -20 -20
-20 -20 -20 -20 -20 -20 -20 -20 -20 -11 -4 -16 -20 -3 11 -14 4 -7 -20 -15 -6 -18 9 13 27 11 24 -16 13 4 2 -3 -14 11 5 -20 -20 -20 -20 -20 -20 -20 -20
-20 -20 -20 -20 -20 -20 -20 -20 -20 -20 -20 -16 -3 -20 -20 25 12 -18 -14 17 -20 -20 -20 7 17 10 5 7 -3 3 -17 -1 1 -5 5 -8 -20 -20 -20 -20 -20 -20 -20
-20 -20 -20 -20 -20 -20 -20 -20 -20 -20 -20 -20 -20 13 -11 21 -20 12 17 17 -20 -20 -20 12 2 26 -2 16 22 -10 6 -3 -19 -20 -19 -20 -20 -20 -20 -20 -20 -20 -20
-20 -20 -20 -20 -20 -20 -20 -20 -20 -20 -20 -20 -8 8 6 3 4 20 22 12 0 -20 -20 -16 -9 27 21 19 -20 -20 -20 -20 -20 -16 -20 -20 -20 -20 -20 -20 -20 -20 -20
-20 -20 -20 -20 -20 -20 -20 -20 -14 -14 1 9 -1 -5 11 -3 15 22 25 13 19 18 16 14 33 28 8 -2 -20 -20 -19 -18 -20 -19 -20 -20 -20 -20 -20 -20 -20 -20 -20
-20 -20 -20 -20 -20 -20 -20 -20 4 -2 2 -9 -10 3 8 3 14 24 24 30 32 11 13 33 26 40 29 -11 -20 -17 -15 -13 -18 -19 -18 -20 -20 -20 -20 -20 -20 -20 -20
-20 -20 -20 -2 -20 -20 9 7 4 -9 9 14 9 17 21 19 27 11 12 31 22 28 35 26 17 18 14 8 4 -15 -11 -1 -20 -20 -18 -10 -20 -20 -20 -20 -20 -20 -20
-20 -20 -20 -20 -10 -16 18 15 19 7 23 24 23 26 29 23 29 20 1 19 4 9 20 27 20 6 6 2 3 -3 -7 -18 -12 -12 -12 -20 -20 -20 -20 -20 -20 -20 -20

GFSMA_prec_radar_060.txt.gz
Reflectivity
16 33 13 -15 -20 -2 1 -12 -20 -20 -20 -20 -20 -20 -20 -20 -20 -20 -20 -20 -20 -2 -20 -20 -20 -20 -20 -20 -20 -20 -20 -20 -20 -20 -20 -20 -20 -20 -20 -20 -20 -20 -20
16 34 8 6 -20 -7 -13 -7 -20 -20 -20 -20 -20 -20 -20 -20 -20 -20 -20 -20 -20 -18 -4 -20 -20 -20 -20 -20 -20 -20 -20 -20 -20 -20 -20 -20 -20 -20 -20 -20 -20 -20 -20
18 32 -20 -19 -4 -9 -4 -4 -20 -20 -20 -20 -20 -20 -20 -20 -20 -20 -20 -20 -20 -20 -20 -20 -20 -20 -20 -20 -20 -20 -20 -20 -20 -20 -20 -20 -20 -20 -20 -20 -20 -20 -20
18 -16 -20 16 -12 15 2 -19 -20 -20 -20 -20 -20 -20 -20 -20 -20 -20 -20 -20 -20 -20 -20 -20 -20 -20 -20 -20 -20 -20 -20 -20 -20 -20 -20 -20 -20 -20 -20 -20 -20 -20 -20
-13 12 15 29 -9 17 3 -20 -20 -20 -20 -20 -20 -20 -20 -20 -20 -20 -20 -20 -20 -20 -20 -20 -20 -20 -20 -20 -20 -20 -20 -20 -20 -20 -20 -20 -20 -20 -20 -20 -20 -20 -20
-20 31 18 30 19 19 -2 -20 -20 -20 -20 -20 -20 -20 -20 -20 -20 -20 -20 -20 -20 -20 -20 -20 -20 -20 -20 -20 -20 -20 -20 -20 -20 -20 -20 -20 -20 -20 -20 -20 -20 -20 -20
-20 11 21 18 -4 14 2 1 -20 -8 -20 -20 -20 -20 -20 -20 -20 -20 -20 -20 -20 -20 -20 -20 -20 -20 -20 -20 -20 -20 -20 -20 -20 -20 -20 -20 -20 -20 -20 -20 -20 -20 -20
6 18 22 -2 19 6 -20 1 24 16 -11 -20 -20 -20 -20 -20 -20 -20 -20 -20 -20 -20 -20 -20 -20 -20 -20 -20 -20 -20 -20 -20 -20 -20 -20 -20 -20 -20 -20 -20 -20 -20 -20
12 9 -12 6 -4 -3 13 27 24 6 -19 -20 -20 -20 -20 -20 -20 -20 -20 -20 -20 -20 -20 -20 -20 -20 -20 -20 -20 -20 -20 -20 -20 -20 -18 -20 -20 -20 -20 -20 -20 -20 -20
-19 -20 -18 -19 -20 -20 -11 25 -0 -20 -20 -20 -20 -20 -20 -20 -14 19 -20 -20 -20 -20 -20 -20 -20 -20 -20 -14 -6 -10 -20 -20 -20 -20 -20 -18 -20 -20 -20 -18 -1 -16 -20
-2 -20 -20 -20 -20 -20 -18 19 -20 -20 -20 -20 -20 -20 -20 -20 -20 -20 -20 -20 -20 -20 -20 -20 -20 -20 -20 -20 -20 10 19 -18 -20 -10 -20 -20 -20 3 -18 3 11 10 14
-18 -20 -7 -19 -20 -20 -20 7 -20 -20 -20 -20 -20 -20 -20 -20 -20 -20 -20 -15 -20 -20 -20 -20 -20 -20 -20 -20 -20 -20 -13 -10 -20 2 -18 -20 -20 -16 -3 -20 -20 -1 8
-20 -20 -20 -20 -20 -20 -20 -20 -20 -20 -20 -20 -20 -20 -20 -20 -20 -20 19 -20 -20 -11 -20 -20 -20 -20 -20 -20 -20 -20 -20 -20 -20 -20 1 2 3 -12 -11 13 4 -20 -20
-20 -20 -20 -20 -20 -20 -20 -20 -20 20 -20 -20 -20 30 1 -20 -20 -20 -20 20 -20 -18 -19 -20 -20 -20 -20 -20 -20 -20 -20 -10 -20 -13 15 1 8 -19 0 15 9 -13 -20
-20 -20 -20 -20 -18 -19 -20 -20 -20 -20 26 -20 -20 -9 -18 -20 -20 -20 -20 20 2 -20 -20 -20 -20 -20 -20 -20 -13 11 26 32 26 27 -6 21 -20 -1 -19 10 15 -16 -20
-20 -20 -20 -20 -20 -2 23 -20 2 27 -8 -20 -20 24 -20 -20 -20 -5 -20 -20 9 19 -20 -20 -20 -20 -20 -8 -6 -12 15 28 17 17 -18 -13 21 17 6 13 12 -20 -20
-20 -20 -20 -20 -20 -8 -9 -20 -20 -20 -20 -20 -20 -5 -20 14 -20 -8 -14 9 1 -8 -20 -20 -20 -20 -20 -20 -20 -19 -15 -7 16 -20 -12 12 6 -5 11 11 -16 -20 -20
-20 -20 -20 -20 -20 -20 -20 -20 -20 -20 -20 -20 -20 -19 -20 -8 -20 -19 16 12 10 8 -20 -20 -20 -20 -20 -14 19 -20 9 8 -20 -16 -18 -20 -19 -19 -4 12 -12 -20 -20
-20 -20 -20 -20 -20 -20 -20 -20 -20 -20 -20 -20 -20 -20 -20 -20 -20 -20 -20 23 18 23 22 -20 -20 -20 -20 -20 6 -20 22 4 -20 -4 -4 -13 5 15 -2 -7 -20 -20 -20
-20 -20 -20 -20 -20 -20 -20 -20 -20 -20 -20 -20 -20 -20 -20 -20 -20 -20 -13 5 11 17 6 -19 1 -6 -20 -20 -20 -17 13 16 3 18 15 12 12 -14 -20 -20 -20 -20 -20
-20 -20 -20 -20 -20 -20 -20 -20 -20 -20 -20 -20 -20 -20 -20 -20 -20 -20 12 14 -18 2 13 30 23 12 -20 -20 -19 -14 15 8 32 29 2 -6 -19 -20 -19 -20 -19 -20 -20
-20 -20 -20 -20 -20 -20 -20 -20 -20 -20 -20 -20 -20 -20 -20 -20 -20 -20 -20 -20 4 32 14 12 40 -0 -20 -20 -19 13 20 34 23 35 21 -20 -20 -20 -18 -18 -20 -20 -20
-20 -20 -20 -20 -20 -19 -20 -20 -20 -20 -20 -20 -20 -20 -20 -20 -8 -20 9 15 18 21 23 9 7 21 30 28 16 35 31 24 28 17 -4 3 -19 -17 -18 -19 -20 -20 -20
-20 -20 -20 -20 -7 -20 -20 -13 -7 -13 -20 -20 -6 6 9 -20 -20 -20 -16 -18 -0 23 21 16 23 26 28 30 19 30 18 17 13 5 11 -13 -20 -20 -20 -20 -20 -19 -20
-20 -20 -20 -20 -20 -20 5 -20 -10 -20 -11 -3 -16 -15 -1 11 20 21 20 15 14 27 36 39 33 25 27 27 16 8 13 7 6 9 10 4 -16 -20 -20 -20 -20 -20 -20
-20 -20 -20 -20 6 -18 2 13 9 -20 -5 -20 -18 -5 23 18 26 15 16 9 15 20 17 26 28 17 17 16 17 18 9 10 14 9 -2 -20 -20 -20 -20 -20 -20 -20 -20

GFSMA_prec_radar_066.txt.gz
Reflectivity
14 -20 -20 -20 -20 -20 -20 -20 -20 -20 -14 22 -20 -20 -20 -20 -20 -20 -20 -20 -20 -20 -20 -20 -20 -20 -20 -20 -20 -20 -20 -20 -20 -20 -20 -20 -20 -20 -20 -20 -20 -20 -20
-2 4 -20 -20 -20 -20 -20 -20 -20 -20 -20 3 -18 -20 -20 -20 -20 -20 -20 -20 -20 -20 -20 -20 -20 -20 -20 -20 -20 -20 -20 -20 -20 -20 -20 -20 -20 -20 -20 -20 -20 -20 -20
-3 -19 -20 -14 17 5 -8 -12 -20 -20 -20 -15 13 -20 -20 -20 -20 -20 -20 -20 -20 -20 -20 -20 -20 -20 -20 -20 -20 -20 -20 -20 -20 -20 -20 -20 -20 -20 -20 -20 -20 -20 -20
-8 -12 6 -16 -11 -13 -4 -20 -20 -20 -20 -20 13 -20 -20 -20 -20 -20 -20 -20 -20 -20 -20 -20 -20 -20 -20 -20 -20 -20 -20 -20 -20 -20 -20 -20 -20 -20 -20 -20 -20 -20 -20
4 -14 -20 -19 -8 -20 -20 -20 -20 -20 -20 -20 8 -0 -20 -20 -20 -20 -20 -20 -20 -20 -20 -20 -20 -20 -20 -20 -20 -20 -20 -20 -20 -20 -20 -20 -20 -20 -20 -20 -20 -20 -20
-14 21 -20 0 -3 -20 -20 -20 -20 -20 -20 -20 -2 -6 -6 -20 -20 -20 -20 -20 -20 -20 -20 -20 -20 -20 -20 -20 -20 -20 -20 -20 -20 -20 -20 -20 -20 -20 -20 -20 -20 -20 -20
3 10 -5 9 -2 -20 -20 -18 -20 -20 -20 0 -11 -6 5 -20 -20 -20 -20 -20 -20 -20 -20 -20 -20 -20 -20 -20 -20 -20 -20 -20 -20 -20 -20 -20 -20 -20 -20 -20 -20 -20 -20
23 9 15 9 5 -20 -20 -20 -20 -20 -20 2 -12 2 14 -1 -18 -20 -20 -20 -20 -20 -20 -20 -20 -20 -20 -20 -20 -20 -20 -20 -20 -20 -20 -20 -20 -20 -20 -20 -20 -20 -20
-1 17 5 2 4 -1 -20 -20 -20 -20 -20 12 -3 7 15 14 9 -19 -2 -20 -20 -20 -20 -20 -20 -20 -20 -20 -20 -20 -20 -20 -20 -4 -6 -20 -20 -20 -20 -20 -20 -20 -20
14 19 7 -4 9 6 -3 9 -20 -20 -19 6 15 6 18 24 5 -20 -20 -20 -20 -20 -20 -20 -20 -20 -20 -20 -20 -20 -20 -20 -20 -20 -20 -15 -20 -20 -20 -20 -20 -20 -20
25 -11 -2 25 22 24 24 23 13 1 -20 -16 4 17 22 7 -20 -20 -20 -20 -20 -20 -20 -20 -20 -20 -20 -20 -20 -20 -20 -20 -20 -20 -20 -20 -20 -20 -20 -20 -20 -19 6
20 23 30 25 20 27 26 31 30 7 -8 11 -2 7 6 -20 -20 -20 -20 -20 -20 -20 -20 -20 -20 -20 -20 -20 -20 -20 -20 -20 -20 -20 -20 -20 -14 18 13 6 -4 19 25
6 2 17 26 23 25 22 12 -1 13 10 -20 -8 -20 -20 -20 -20 -20 -20 -20 -20 -20 -20 -20 -20 -20 -20 -20 -20 -20 -20 -20 -20 -20 -20 -20 9 10 19 25 30 25 23
-20 -20 -17 10 24 24 11 21 8 -6 -5 -18 -20 -20 -20 -20 -20 -20 -20 -20 -16 -20 -20 -20 -20 -20 -20 -20 -20 -20 -20 -20 -20 -20 -20 -20 -13 21 23 17 18 24 19
-20 -20 -20 -20 -20 -20 -20 -20 -20 -20 -20 -20 -20 -20 -20 -20 -20 -20 -16 -20 -20 -20 -20 -20 -20 -20 -20 -20 -12 -20 -20 -20 -20 -19 -20 -20 -20 -20 -18 -1 21 7 11
-20 -20 -20 -20 -20 -20 -20 -20 -20 -20 -20 -20 -20 -20 -20 -20 -20 -20 -20 -20 -20 -20 -20 -20 -20 -20 -20 -20 -20 -20 -20 -20 -19 -12 -17 10 -11 -20 -20 -20 -15 -9 -19
-20 -20 -20 -20 -20 -20 -20 -20 -20 -20 -20 -20 -20 -20 -20 2 8 -13 -16 -2 -12 -20 -20 -20 -20 -20 -20 -20 -20 -20 -6 18 8 -10 -16 5 -20 -20 -20 -12 -12 -20 -20
-20 -20 -20 -20 -20 -20 -20 -20 -20 -20 -20 -19 -20 -20 -20 -20 -20 -20 -20 -20 -20 -20 -20 -20 -20 -20 -20 -20 -20 -20 -20 -20 8 21 24 6 11 -18 -15 -10 -4 1 16
-19 -20 -20 -20 -20 -20 -20 -20 -20 -20 -20 -20 -20 -20 -20 -20 -20 -20 -20 -20 -20 -20 -20 -20 -20 -20 -20 -20 -20 -20 -20 -20 10 13 -14 23 12 25 -17 6 20 26 22
-20 -20 -20 -20 -20 -20 -20 -20 -20 -20 -20 -20 -20 -20 -20 -20 -20 -20 -20 -20 -20 -20 -20 -20 -20 -19 -20 -20 -20 -20 -20 -11 -10 -7 7 21 8 26 17 21 24 13 23
-20 -20 -8 3 -19 -20 -20 -20 -20 -20 -20 -20 -20 -20 -20 -20 -20 -20 -20 -20 -20 -20 -20 -20 -20 -15 -20 -20 -19 -12 -20 19 -0 16 27 24 14 24 17 27 24 28 33
-20 -20 -20 -9 3 -14 -20 -20 -20 -20 -20 -20 -20 -20 -20 -20 -20 -20 -20 -20 -20 -20 -20 -1 -20 -20 -11 -20 -20 -20 -20 -10 7 4 29 6 21 32 27 25 26 27 22
-17 -20 -20 27 -13 -19 -5 -20 -20 -20 -20 -20 -20 -20 -20 -20 -20 -20 -20 -20 -16 9 -4 -17 -5 -13 -19 9 20 3 0 -20 3 22 16 3 22 21 28 38 33 20 20
-0 -0 -20 -20 -2 -20 -20 -20 -20 -0 -20 -20 -20 -20 -20 -20 -20 -20 -20 -17 -6 -16 -16 -20 -20 11 21 7 12 25 28 27 33 29 34 8 26 17 30 37 33 18 11
20 8 -20 20 -6 -20 19 -12 -15 6 28 -15 -20 -20 -20 -20 20 -11 3 -7 -4 8 20 24 21 20 21 21 14 5 17 20 22 30 30 20 12 16 14 19 18 -0 -15
-20 -17 12 -13 14 -6 23 26 -20 -19 -2 16 21 10 6 1 22 23 17 -8 4 8 19 -2 8 13 21 11 16 23 29 29 27 22 12 17 16 11 7 8 9 -2 3

GFSMA_prec_radar_072.txt.gz
Reflectivity
12 -20 11 25 26 -16 -20 -20 -20 -20 -20 -20 -20 3 -12 1 -20 -20 -20 -2 4 13 17 4 1 2 1 -2 -20 -20 -20 -20 -20 -20 -20 -20 -20 -20 -20 -20 -20 -20 -20
-11 1 7 28 25 -7 -2 -19 -20 -20 -20 -20 -20 -20 -18 -17 -20 -20 -20 -20 -9 11 14 16 1 -0 1 -20 -20 -20 -20 -20 -20 -20 -20 -20 -20 -20 -20 -20 -20 -20 -20
-20 -0 14 25 -8 6 -17 -20 -20 -20 -20 -20 -20 -20 -4 -20 -20 -20 -20 -20 2 -8 -12 -4 -20 -6 -20 -20 -20 -20 -20 -20 -20 -20 -20 -20 -20 -20 -20 -20 -20 -20 -20
-3 5 18 24 -19 -20 -20 -20 -20 -20 -20 -20 -20 -19 -15 3 1 -20 -20 -20 -20 -20 -20 -20 -3 -0 -19 -20 -20 -20 -20 -20 -20 -20 -20 -20 -20 -20 -20 -20 -20 -20 -20
22 12 24 16 -13 -20 -20 -20 -20 -20 -20 -20 -20 -20 -18 5 -20 -20 -20 -20 -20 -20 -20 -20 -20 -20 -20 -20 -20 -20 -20 -20 -20 -20 -20 -20 -20 -20 -20 -20 -20 -20 -20
13 30 31 20 -20 -20 -20 -20 -20 -20 -20 -20 -20 -20 -18 3 -18 -20 -20 -20 -20 -20 -20 -20 -20 -20 -20 -20 -20 -20 -20 -20 -20 -20 -20 -20 -20 -20 -20 -20 -20 -20 -20
34 28 3 -19 -20 -20 -20 -20 -20 -20 -20 -20 -20 -20 -20 -13 7 -20 -20 -20 -20 -20 -20 -20 -20 -20 -20 -20 -20 -20 -20 -20 -20 -20 -20 -20 -20 -20 -20 -20 -20 -20 -20
34 29 3 -19 -20 -20 -20 -19 -20 -17 -20 -5 -12 -11 -20 -20 -20 -8 1 -16 -20 -20 -20 -20 -20 -20 -20 -20 -20 -20 -20 -20 -16 14 -10 -20 -20 -20 -20 -20 -20 -20 -20
30 31 30 16 -20 -15 -18 -20 -9 -18 -13 1 -19 -12 -20 -20 0 4 11 14 -4 -20 -20 -12 -20 -20 -20 -20 -20 -20 -20 -20 -20 -8 5 -20 -20 -20 -20 -20 -20 -20 -20
11 24 28 30 18 -13 7 -18 6 -20 -20 -20 -20 -20 -20 -20 -20 -20 -3 18 8 12 10 -8 -9 -20 -20 -20 -14 -20 -20 -20 -20 -20 -20 -16 6 -20 -20 -20 -20 -20 -20
19 17 24 26 22 22 15 12 6 -20 -20 -20 -20 -20 -20 -20 -20 -17 12 15 24 8 -20 9 -8 -20 -17 -3 -11 -20 -20 -20 -20 -20 -20 -20 -20 -20 -18 -20 -20 -20 -20
30 17 -2 29 24 -5 13 8 -6 -10 -5 -20 -20 -17 -6 -18 1 14 -14 -3 -2 -20 -20 -4 -2 8 4 -20 -20 -20 -20 -20 -20 -20 -20 -20 -20 -20 -20 -20 -7 -16 -20
19 15 13 18 25 12 22 24 11 10 8 6 5 -7 7 8 6 21 -14 -20 12 -16 -8 3 9 -3 -20 -20 -20 -20 -20 -20 -20 -20 -20 -20 -20 -20 -20 -20 -20 -11 6
-1 0 3 12 26 25 21 24 21 15 25 17 -6 9 5 7 4 2 7 22 12 2 -14 -20 6 -20 -20 -20 -20 -20 -20 -20 -20 -20 -20 -20 -20 -20 -20 -20 -20 -20 -20
-16 -20 -15 31 23 23 17 17 25 26 22 11 13 25 9 2 -4 8 19 2 -18 -18 -20 -9 -20 -18 -18 -16 -17 -20 -20 -20 -20 -20 -6 8 -19 -20 -20 -20 -20 -20 7
-19 -15 5 -13 -13 10 24 22 16 20 21 24 22 30 33 24 5 12 15 2 -8 -19 -20 -20 -20 -15 21 21 1 5 -16 -20 -20 -20 -20 -9 -13 -20 -20 -20 -20 -20 -20
-7 -20 -20 -20 -20 -20 -15 20 25 17 13 18 -2 22 19 16 31 20 5 -20 -20 -20 -14 -20 -20 -12 -20 -20 -20 -20 -20 -20 -20 -20 -20 -20 -20 -20 -20 -20 -20 -20 -20
-20 -20 -20 -20 -20 -20 -20 -20 -20 16 -9 -2 9 -4 -19 -18 -20 -20 -20 -20 -20 -20 4 -20 -20 -20 -20 -20 -20 -20 -20 -20 -20 -20 -20 -20 -20 -20 -20 -20 -20 -20 -20
-20 -20 -20 -20 -20 -20 -20 -20 -20 -20 -20 -20 -20 -20 -20 -20 -20 -20 -7 -16 -20 -20 -3 5 -16 -20 -20 -20 -20 -20 -20 -20 -20 -20 -20 -20 -20 -20 -20 -20 -20 -20 -16
-20 -20 -20 -20 -20 -20 -20 -20 -20 -20 -20 -20 -10 -10 -0 -20 -20 -20 -20 -20 -20 -20 -20 -20 -20 -20 -20 -20 -20 -20 -20 -20 -20 -20 -20 -20 -20 -20 -20 -20 -20 -20 -20
-0 2 -9 -20 -20 -20 -20 -20 -20 -20 -20 -20 -20 -20 -20 -20 -20 -20 -20 -20 -20 -20 -20 -20 -20 -20 -20 -20 -20 -20 -20 -20 -20 -20 -20 -20 -20 -20 -20 -20 -20 -20 -20
8 14 26 8 18 7 11 -14 -20 -20 -20 -20 -20 -20 -20 -20 -20 -20 -20 -20 -20 -20 -20 -20 -20 -20 -20 -20 -20 -20 -15 -20 -20 -20 -20 -20 -20 -20 -20 -12 18 14 19
17 12 16 20 18 15 25 19 20 14 18 7 -9 -20 -20 -20 -17 -20 -20 -20 -20 -20 -20 -20 -20 -20 -20 -20 -20 -20 -20 -12 -18 -20 -20 -20 -18 1 9 21 22 20 13
-13 4 16 13 18 23 20 14 15 10 -2 -15 -0 17 11 14 7 12 -20 -20 -20 -20 -19 -20 -20 -20 8 15 18 17 20 24 7 6 -4 3 25 23 23 29 33 29 23
-20 -17 -20 -20 -20 -19 11 0 3 -18 -15 -13 -17 20 20 20 16 17 18 22 17 19 27 23 24 29 22 7 0 -1 7 27 26 24 26 26 27 27 28 33 21 26 16
-10 -20 -20 -20 11 -20 14 7 0 -20 -20 1 26 27 29 19 13 0 15 18 22 30 25 25 10 23 23 16 18 19 14 15 34 37 31 30 28 28 29 37 30 17 16

GFSMA_prec_radar_075.txt.gz
Reflectivity
6 9 24 2 23 32 10 -20 -20 -20 -20 -20 -20 -20 -20 -20 -20 -20 -7 6 6 4 -3 13 15 7 3 11 13 4 -1 -1 -13 -20 -20 -20 -20 -20 -20 -20 -20 -20 -20
9 -5 27 3 16 30 20 -20 -20 -20 -20 -20 -20 -20 -18 -13 -20 -14 -17 -16 7 -8 12 11 12 5 8 14 4 -8 -5 -20 -20 -20 -20 -20 -20 -20 -20 -20 -20 -20 -20
-1 31 6 1 26 24 22 -19 -20 -20 -20 -20 -20 -20 -20 -20 -20 8 -20 -20 -3 11 7 8 2 2 4 4 3 1 -16 -20 -20 -20 -20 -20 -20 -20 -20 -20 -20 -20 -20
3 13 3 7 28 31 -4 8 -20 -20 -20 -20 -20 -20 -20 -20 -20 -7 -20 -20 -20 -2 -5 -18 6 7 3 9 2 -1 -20 -20 -20 -20 -20 -20 -20 -20 -20 -20 -20 -20 -20
13 15 -20 -13 26 22 0 -19 -20 -20 -20 -20 -20 -20 -20 -20 -20 -20 -20 -20 2 0 -6 -19 -20 -20 1 -0 -4 -13 -20 -20 -20 -20 -20 -20 -20 -20 -20 -20 -20 -20 -20
37 5 -1 6 29 24 -2 -20 -20 -20 -20 -20 -20 -20 -20 -20 -20 11 -16 -20 -20 -20 -17 2 -5 -20 -20 -14 3 -20 -20 -20 -20 -20 -20 -20 -20 -20 -20 -20 -20 -20 -20
33 32 0 19 22 23 15 -20 -20 -20 -20 -20 -20 -20 -20 -20 -20 -20 -17 -20 -20 -20 -20 -20 -20 -20 -20 -20 -20 -20 -20 -9 -10 -20 -20 -20 -20 -20 -20 -20 -20 -20 -20
35 21 21 25 26 23 -3 -20 -20 -20 -20 -20 -20 -20 -2 -18 -20 -17 9 7 -16 -20 -19 -20 -20 -20 -20 -20 -20 -20 -20 -20 1 11 -7 -16 -20 -20 -20 -20 -20 -20 -20
33 35 31 34 27 11 -20 -20 -20 -20 -20 -20 -20 -20 -20 -16 3 -8 -11 -2 -11 -7 10 -12 -20 -20 -20 -19 -20 -20 -20 -20 -20 -6 2 -14 -20 -20 -20 -20 -20 -20 -20
32 36 31 23 12 -6 -20 -20 -20 -20 -20 -20 -20 -20 -20 -20 -19 -20 -20 -20 -20 -15 4 21 10 -14 -20 -4 -19 -20 -20 -20 -20 -20 -20 -13 -8 -20 -20 -20 -20 -20 -20
14 28 29 26 18 6 8 -16 -14 -20 -20 -20 -20 -20 -20 -20 -20 -20 -20 -20 -1 4 -0 -3 10 0 14 -20 -20 -16 -6 2 -20 -20 -20 -20 -20 -20 2 -20 -20 -20 -20
27 28 -1 12 16 0 -16 -10 3 -19 -20 -18 -17 -20 -20 -20 -20 -20 -20 -16 -20 -2 -5 -12 -20 -20 -20 -20 -5 9 10 -20 -20 -20 -20 -20 -20 -20 -20 -20 -5 -20 -20
8 22 27 20 19 26 23 1 -5 -3 -20 -20 -1 -20 -17 -4 -4 4 -18 -7 -20 -20 -20 -20 -0 -7 -11 -6 6 -10 -20 -20 -20 -20 -20 -20 -20 -20 -20 -20 -20 -20 -12
3 24 23 16 14 29 27 24 10 9 15 -18 -8 -6 4 6 2 6 -8 11 -15 -20 -14 -5 15 -14 -9 -4 -20 -20 -18 -20 -20 -20 -20 -20 -20 -20 -20 -20 -20 -9 -10
-4 -20 18 20 19 7 23 24 20 21 12 14 19 18 -13 3 -0 -12 -20 -16 6 8 -20 7 13 -14 -20 -20 -20 -20 -20 -20 -20 -20 -20 -20 -20 -20 -18 10 15 -15 -20
13 -3 7 -15 18 31 26 17 27 16 12 4 10 1 -9 13 -1 6 6 8 8 13 4 12 3 -9 -0 -6 -20 -20 -20 -20 -9 -20 -20 -18 -11 -4 -10 -20 -20 -20 -20
-8 -2 -20 -1 -7 12 -3 -15 23 22 7 8 11 15 8 3 23 12 21 24 7 23 23 9 3 -20 -20 -20 -20 -19 -19 -8 -17 -15 -20 -20 -20 -20 -20 -20 -20 -20 -20
-20 -20 -20 8 9 6 -0 -1 -20 -20 -5 16 17 13 12 28 13 23 22 21 29 21 13 14 -20 -20 -20 -20 -20 -20 -20 -15 -9 -2 -8 -7 -12 -20 -20 -20 -20 -20 -20
-20 -20 -20 -20 -20 -20 -20 -20 -20 -20 -20 4 15 15 10 5 2 -5 8 -10 -11 -20 -20 -20 -20 -20 -20 -20 -20 -20 -20 -20 -20 -20 -20 -20 -20 -20 -20 -20 -20 -20 -20
-20 -20 -20 -20 -20 -20 -20 -20 -20 -20 -20 -20 -20 -20 -20 -20 -20 -20 -20 -20 -20 -20 -20 -4 -19 -20 -20 -20 -20 -20 -20 -20 -20 -20 -20 -20 -20 -20 -20 -20 -20 -20 -20
-20 -20 -20 -20 -20 -20 -20 -20 -20 -20 -7 -17 -20 -20 -20 -20 -20 -20 -20 -20 -20 -20 -1 13 17 12 -20 -20 -12 -20 -9 -20 -20 -20 -20 -20 -20 -20 -20 -18 -11 -20 -20
4 6 12 5 14 23 20 2 14 -13 -18 -20 -20 -20 -20 -20 -20 -20 -20 -20 -20 -12 5 8 7 6 -13 -20 -20 -20 -20 -20 3 -20 -20 -20 -20 -20 -20 -20 13 -3 6
11 18 13 19 22 16 22 12 14 8 1 14 10 5 -6 -6 15 -11 -18 -15 -8 -9 -3 -14 -20 -20 -20 -4 7 14 1 -10 -14 -18 -20 -20 -3 7 22 19 23 17 24
-11 -1 3 6 6 5 12 3 -7 -18 -20 -2 7 12 20 20 22 23 16 18 16 15 24 21 26 24 19 17 12 11 14 11 -8 -10 -2 12 16 18 24 23 29 20 19
-20 -20 -20 -20 -18 -17 11 11 7 -18 3 14 19 16 10 -1 18 11 7 -2 -11 23 36 24 16 22 21 19 16 2 18 24 35 34 33 32 28 27 22 24 22 28 24
-20 -20 -20 -20 -13 -20 -20 -20 -20 -20 -20 -20 -20 -19 17 12 16 12 4 -13 2 24 30 26 24 29 29 24 31 20 9 15 29 31 35 38 39 35 34 30 31 31 30

GFSMA_prec_radar_078.txt.gz
Reflectivity
-9 6 9 8 -11 27 29 37 25 -5 24 -20 -20 -20 -20 -20 -20 -20 -20 -20 11 -8 -6 4 1 9 5 6 4 0 -11 -8 -20 -20 -20 -20 -20 -20 -20 -20 -20 -20 -20
-12 -3 0 9 20 27 31 31 -5 4 1 -20 -20 -20 -20 -20 -20 -20 -20 -20 -3 11 2 12 12 10 12 7 8 -2 -18 -4 -7 -4 -2 -20 -20 -20 -20 -20 -20 -20 -20
-3 1 -7 15 25 22 26 33 25 -14 -20 -20 -17 -20 -20 -20 -20 -20 -20 -20 -10 11 -1 15 11 10 11 9 6 -20 -20 -20 -4 -4 -20 -20 -20 -20 -20 -20 -20 -20 -20
26 6 3 13 22 25 23 32 -7 23 20 -20 -20 -20 -20 -20 -20 -20 -20 -20 -20 -20 6 11 10 12 9 -14 9 -3 -11 -20 -20 -20 -20 -20 -20 -20 -20 -20 -20 -20 -20
24 11 17 21 14 27 32 33 -20 -20 14 -20 -20 -20 -20 -20 -20 -20 -20 -20 -20 -20 -20 -16 7 3 4 8 -16 -2 -15 -20 -20 -20 -20 -20 -20 -20 -20 -20 -20 -20 -20
16 23 27 -18 -8 21 27 27 -10 9 -20 -20 -20 -20 -20 -20 -20 -20 -20 -20 -20 -20 -20 -20 -20 -15 -18 4 -4 -8 2 -6 -20 -20 -20 -20 -20 -20 -20 -20 -20 -20 -20
41 37 30 -17 26 15 29 20 3 19 6 -20 -20 13 7 -3 2 -20 -20 -20 2 -20 -20 -20 -20 -20 -20 -20 -20 -9 2 4 -19 -11 -20 -20 -20 -20 -20 -20 -20 -20 -20
16 37 37 30 30 13 28 27 22 -2 18 -20 -4 6 6 3 3 1 -14 -20 -9 -20 -20 -20 -20 -20 -20 -20 -20 -20 -20 -13 4 -13 -20 -20 -20 -20 -20 -20 -20 -20 -20
-10 26 35 35 25 24 25 16 18 5 -8 -3 -20 -18 10 -9 -15 2 -11 -20 -20 -15 -2 -7 -20 -20 -19 -20 -20 -20 -20 -20 -20 -5 6 -20 -20 -20 -20 -20 -20 -20 -20
16 24 28 27 30 27 26 27 -1 -19 -17 6 -7 -20 -20 -20 -15 10 1 -20 -20 -20 -20 -9 -7 -17 -0 9 4 -18 -20 -20 -14 -20 -20 -14 -8 -20 -20 -20 -20 -20 -20
2 30 31 34 30 31 25 28 16 -17 -18 -20 -20 5 -20 -19 -20 -20 -20 -20 -20 -17 -3 -12 -20 -18 -20 -20 -2 -2 3 5 -20 -20 -13 13 -20 -20 6 -19 -20 -20 -20
15 30 35 26 30 26 22 -12 -3 -2 -13 -20 -20 -20 -18 -5 -16 -20 -20 -20 -20 -20 -20 -10 -13 6 -7 -20 -20 -20 -16 -20 -20 -20 -20 -18 -20 -20 -20 -20 -15 -14 -20
15 13 27 21 26 27 26 13 8 8 -0 -19 -19 -2 15 -2 2 -17 -20 -20 -19 -20 -20 -20 -20 -20 -19 -20 -12 6 5 -20 -20 -20 -20 -20 -20 -20 -20 -20 -20 -20 -14
2 7 18 30 22 16 24 -3 -19 -0 19 6 10 7 -8 -4 14 1 -11 -18 -20 -20 -20 -20 -20 -20 -20 -18 -11 -3 -1 -20 -20 -20 -18 -20 -20 -20 -20 -20 -20 -20 -20
-9 -18 9 31 20 21 8 9 18 21 20 22 22 26 13 21 -1 -20 -17 -18 8 -9 -12 7 1 -20 -20 0 -20 -20 -20 -20 -20 13 -20 -20 -20 -20 -20 -20 -20 -20 -20
11 17 -8 1 22 -9 17 -16 18 20 12 5 6 0 19 21 18 8 -20 -14 5 -8 12 -6 16 -8 -20 -20 -16 -20 -20 -20 -20 -20 -20 -20 -20 -20 -20 -20 -20 -20 -20
10 -20 11 13 11 16 15 5 17 -0 21 19 21 17 24 22 15 10 -11 -20 -15 3 14 -12 9 7 -5 -12 -20 -20 -20 -20 -20 -20 -20 -20 -3 -13 -20 -20 -20 -20 -20
13 14 12 9 2 -20 10 19 4 9 16 11 10 4 -16 1 -5 -3 10 21 17 15 14 -14 -0 -6 -10 1 -6 16 -20 -20 -20 -20 -20 -20 -20 -19 -4 -19 -20 -20 -20
-13 2 10 8 9 9 8 6 2 6 8 1 -10 -20 -7 8 7 -1 -2 9 8 2 13 14 1 16 -3 12 -8 -8 -20 -15 -20 -20 -20 -20 -20 -20 -20 -20 -20 -20 -20
13 2 -20 -20 -13 -5 -4 9 14 16 8 -9 6 6 18 5 7 17 22 10 -2 5 8 11 -20 -16 3 -20 14 12 10 7 7 -20 -20 -20 -20 -20 -20 -20 -20 -20 -20
14 13 13 14 3 -20 -17 -20 -9 8 1 -15 -20 -20 14 15 8 -9 22 20 19 20 23 23 12 -20 -12 11 9 4 18 4 -17 8 6 3 17 -20 -9 7 -6 -20 -11
12 15 20 19 4 -20 14 -9 -20 -20 -20 4 4 5 7 19 1 0 4 8 7 -1 14 19 18 11 -14 -20 -20 -20 4 17 -8 10 2 -9 -2 15 9 -5 17 -3 0
2 -1 0 4 8 6 18 6 3 -0 0 4 21 23 17 19 26 12 25 18 11 15 20 22 19 23 26 26 25 13 4 6 -10 -16 4 11 -1 -1 14 22 28 13 19
1 11 3 1 9 5 11 3 -2 -7 -8 4 0 2 3 3 10 15 5 14 17 24 24 16 26 29 22 16 15 22 23 23 16 9 18 18 20 25 25 29 32 33 33
-20 -20 -20 -20 -20 -20 -1 1 1 -20 -20 -20 -19 -20 -20 -19 14 9 4 -8 21 21 33 24 15 19 25 28 33 25 24 32 31 33 36 38 35 38 35 33 30 31 18
-20 -20 -20 -20 -20 -20 -20 -20 -20 -20 -20 -20 -20 -20 2 -11 -20 -20 -20 -20 -20 -5 4 13 12 21 23 17 23 12 3 11 16 29 28 27 29 26 27 25 25 20 21

GFSMA_prec_radar_084.txt.gz
Reflectivity
-17 -15 -20 -20 -20 -20 -18 6 -16 34 17 -18 -8 -20 -20 3 -20 -20 -20 -20 -20 -20 -11 5 8 16 -8 -3 3 13 -15 6 1 1 -8 -20 -20 -15 -19 -20 -20 -20 -20
-8 -20 -20 -20 -20 -20 -20 -20 4 10 29 26 31 -20 -20 -20 -20 -20 -20 -20 -20 -20 -20 9 16 19 11 3 2 11 9 12 13 2 -20 -20 -17 -20 -20 -20 -20 -20 -20
8 -20 -20 -20 -20 -20 -11 -20 -19 30 35 32 31 -20 -20 -20 -20 -20 -20 -20 -20 -20 1 5 12 5 -7 9 11 12 13 15 -16 -12 -20 -20 -20 -20 -20 -20 -20 -20 -20
11 9 -20 -20 -4 -20 -20 -20 -3 27 31 33 27 -17 -8 -20 -20 -20 -20 -20 -20 -20 -18 -16 -15 10 10 -20 16 15 8 -4 -18 -20 -14 -20 -20 -20 -20 -20 -20 -20 -20
-20 -7 -9 -6 24 -20 -20 -19 26 29 38 34 8 -10 -1 -20 -20 -20 -20 -20 -20 -20 -20 -5 7 -20 6 10 8 -9 -15 -20 -14 -10 -20 -20 -20 -20 -20 -20 -20 -12 -20
-20 -11 15 -3 9 -16 -1 7 32 35 27 32 6 -20 -20 -20 -20 -20 -20 -20 -20 -20 -20 -20 -16 -7 -20 -5 -20 -17 -20 -20 -20 -20 -20 -20 -20 -20 -20 -4 -2 -17 -20
-20 -20 -20 -11 -2 -4 -17 18 30 31 32 29 18 -20 -20 -20 -20 -20 -20 -20 -20 -20 -20 -20 -20 -20 -20 -20 -20 -20 -20 -20 -20 -20 -20 -20 -20 -20 -20 -20 -13 -14 -20
-16 6 7 -7 -20 11 1 -14 34 23 35 26 -8 -13 -0 -3 -15 -20 -20 -20 -20 -20 -20 -20 -20 -20 -20 -20 -20 -20 -20 -20 -20 -20 -20 -20 -20 -20 -20 -20 -20 -2 -15
-20 3 13 10 -4 23 30 15 19 26 27 31 -18 4 -10 -19 -6 -20 -20 -20 -20 -20 -20 -20 -20 -20 -20 -20 -20 -20 -20 -20 -20 -20 -20 -20 -20 -20 -20 -20 -20 -16 -15
17 17 -20 -13 -20 14 21 24 24 28 30 30 14 4 19 -13 -20 -20 -20 -20 -20 -20 -20 -20 -20 -20 -20 -20 -20 -20 -20 -20 -20 -20 -20 -17 -20 -20 -20 -20 -20 -20 -20
-20 21 -20 -20 -20 18 26 26 23 26 24 32 17 7 11 -20 -20 -20 -20 -20 -20 -20 -20 -20 -20 -20 -20 -20 -20 -20 -20 -20 -20 -20 -20 -20 -13 -11 -11 -20 -16 7 0
-19 -10 -15 -20 -6 16 30 24 27 28 27 22 20 22 7 -19 4 -15 -12 -20 -20 -20 -20 -20 -20 -20 -20 -20 -7 -16 -19 -20 -20 -20 -20 -20 -19 -17 -20 -20 -19 -6 -3
-20 -20 -0 -19 4 25 20 26 31 28 28 18 13 24 9 -20 -20 -20 19 17 -20 -7 -20 -20 -20 -20 -20 -20 -20 -20 -20 -20 -20 -20 -20 -20 -20 -20 -20 -20 -20 -20 -10
-18 -15 -20 -5 22 31 24 22 26 29 26 24 19 5 -17 0 4 3 -20 -20 3 -17 -18 -20 9 -20 -20 -20 -20 -20 -20 -20 -20 -20 -20 -20 -20 -20 -20 -3 -5 1 -4
-3 -14 -20 5 22 19 27 27 25 25 24 25 24 25 5 13 -20 -18 -20 -18 9 3 -9 -5 22 -8 -7 -20 -15 -20 -20 -20 -20 -20 -20 -20 -20 -20 -20 -20 -20 -20 -20
-20 -20 -15 -16 -13 19 28 33 20 21 27 29 22 9 -5 5 -2 4 -11 15 24 21 17 -5 -16 -11 5 -0 -20 -20 -20 -20 -20 -20 -20 -20 -20 -20 -20 -20 -20 -20 -20
9 -20 -17 -20 11 8 14 23 30 28 28 25 13 -0 9 21 21 25 20 25 24 25 -1 -9 1 -10 -6 -12 -20 -11 -15 -19 -20 -20 -20 -20 -20 -20 -20 -20 -20 -20 -20
-19 -20 7 -11 2 -7 15 26 19 -6 28 26 33 31 29 28 28 28 18 12 18 13 16 -6 -20 -11 -12 -20 -20 -20 -20 -14 -19 2 -10 -4 -20 -20 10 -11 -20 -20 -20
-5 -20 -10 -10 3 2 6 18 25 22 32 -2 13 1 24 18 25 19 26 20 -15 15 -3 14 -4 4 -20 -20 -20 -20 -20 -20 -20 -20 -20 -20 -18 -14 20 -9 -12 -20 -20
-1 -14 -17 20 21 -9 16 12 11 4 19 29 18 1 16 19 -20 14 -2 2 -20 9 -13 -8 -20 -20 -20 -20 -12 -19 -20 -20 -20 -20 -20 20 14 -0 5 -16 -18 6 4
6 -10 2 6 16 6 -11 1 13 10 27 14 24 18 17 20 14 -15 -16 -8 2 6 3 -1 8 4 8 2 20 28 29 29 31 26 23 20 18 22 12 22 26 27 17
4 7 10 12 11 9 18 14 17 12 13 19 7 26 30 13 12 18 19 5 -8 1 7 13 13 12 14 20 -1 -4 10 1 12 9 20 12 24 22 27 29 32 28 31
6 2 3 16 7 7 14 11 11 -20 -5 -13 14 10 -19 7 12 -19 22 13 21 19 16 7 2 1 11 14 15 15 17 16 19 13 16 12 13 15 25 25 26 23 21
-2 -11 -20 -13 -14 1 10 7 12 -8 -13 -20 -20 -20 -19 1 8 16 21 26 26 21 18 23 21 17 15 7 7 -1 -7 -2 1 1 -13 -2 -16 -7 -11 -5 19 10 -10
17 28 23 13 10 14 21 19 19 3 12 18 20 21 15 18 16 5 -11 -18 -20 -18 5 -0 7 2 6 -10 -20 -20 -20 -20 -20 -20 -20 -20 -20 -20 -20 -20 -20 -20 -20
8 28 28 23 28 15 16 6 -6 -20 -20 -20 -20 -20 7 -12 -20 -20 -20 -20 -20 -20 -20 -20 -20 -20 -20 -9 -16 -15 -20 -20 -20 -20 -20 -20 -20 -20 -20 -20 -20 -20 -20

GFSMA_prec_radar_087.txt.gz
Reflectivity
-20 -20 -20 -20 -20 -20 -16 -16 6 19 -4 1 -20 -20 -20 -20 -20 -20 -20 -20 -20 -20 -20 -12 14 -14 14 1 18 7 -10 -5 15 -2 -19 -20 10 -3 -3 -11 -20 -20 -20
-20 -20 -20 -20 -20 -20 -1 -18 -20 -8 13 11 15 -20 -20 -20 -20 -20 -20 -20 -20 -20 -20 -14 7 2 14 -1 16 17 -9 -2 18 2 -20 -20 -20 3 -20 -20 -20 -20 -20
-20 -20 -20 -20 -20 -20 -20 -20 -20 -20 24 21 30 26 -20 -20 -20 -20 -20 -20 -20 -20 -20 3 14 18 19 6 -5 15 15 14 12 -1 -20 -20 -20 -20 -20 -20 -20 -20 -20
-17 1 -16 -20 -20 -20 -17 -20 -20 -20 -20 23 29 28 12 -20 -20 -20 -20 -20 -20 -20 -20 -20 6 7 14 -14 17 17 13 9 -20 -13 -4 -20 -20 -20 -20 -20 -20 -20 -20
-20 -20 -20 -20 -20 -20 -20 -9 -20 -20 -13 30 25 26 17 -20 -20 -20 -20 -20 -20 -20 -20 -20 -20 -20 5 12 8 18 9 1 -7 -20 -20 -20 -20 -20 -20 -20 -20 -20 -20
7 -20 -20 -3 -20 23 18 -13 -20 -20 14 34 28 23 12 -14 -20 -20 -20 -20 -20 -20 -20 -20 -10 1 1 -20 -13 6 -20 -1 -6 -20 -20 -20 -20 -20 -20 -20 -20 -20 -20
10 13 12 20 -20 -17 18 -20 -20 14 26 35 36 26 15 -6 -20 -20 -20 -20 -20 -20 -20 -20 -20 -20 -20 -20 -20 -20 -20 -20 -20 -20 -20 -20 -20 -20 -20 -20 -20 -20 -2
0 10 15 20 20 -20 -20 6 -3 17 35 25 24 10 12 -18 -20 -20 -20 -20 -20 -20 -20 -20 -20 -20 -20 -20 -20 -20 -20 -2 -15 -20 -20 -20 -20 -20 -20 -20 -20 -20 -20
-15 -2 -15 2 19 -20 -7 -17 -4 9 34 26 27 -4 20 -18 -20 -20 -20 -20 -20 -20 -20 -20 -20 -20 -20 -20 -20 -20 -20 -20 -10 -20 -20 -20 -20 -20 -20 -20 -20 -16 -1
7 -20 -20 -16 -18 -20 -12 8 1 13 20 30 16 21 27 9 -20 -15 -20 -20 -20 -20 -20 -20 -20 -20 -20 -20 -20 -20 -20 -20 -20 -20 -20 -20 -20 -20 -3 5 -8 -18 -18
8 -20 -20 -1 -11 4 -20 -12 31 34 21 28 27 9 14 16 13 -1 -20 -20 -20 -20 -20 -20 -20 -20 -20 -20 -20 -20 -20 -20 -20 -20 -20 -20 -20 -20 -20 -20 -20 -20 -20
13 9 8 -11 -17 -2 -20 11 19 22 28 25 31 27 23 6 16 10 2 -20 -20 -20 -20 -20 -20 -20 -20 -6 -11 -17 -20 -20 -20 -20 -20 -20 -20 -20 -20 -20 -20 -20 -20
2 3 -13 -20 -20 2 -3 19 23 32 29 27 26 28 21 10 16 3 -20 -19 -19 -20 -20 -20 -20 -20 -20 -20 -20 -20 -20 -20 -20 -20 -20 -20 -20 -20 -20 -20 -17 1 1
-20 -20 -20 -20 -20 -8 30 29 27 27 27 25 24 23 23 17 -20 -20 -20 -20 -18 -20 -20 -20 -8 -20 -10 -13 -20 -20 -20 -20 -20 -20 -20 -20 -20 -20 -20 -20 -20 -0 2
-20 -20 -10 -7 -20 26 26 30 22 18 23 27 26 25 23 26 15 -18 9 4 4 -20 -13 -10 1 6 16 14 -17 -20 -18 -20 -20 -20 -20 -20 -20 -9 -6 -8 -18 -6 -20
-20 -20 -20 -20 -20 20 23 27 21 22 25 25 26 24 18 26 23 16 -4 -20 -20 -20 -20 -8 12 2 -14 11 30 20 23 24 6 -17 10 -1 1 12 4 14 -12 -2 -17
-20 -20 -20 -20 -20 13 24 25 29 26 26 27 26 26 28 23 16 5 -15 -18 -20 -13 -17 20 25 26 26 12 -11 2 3 -0 -10 -18 -15 12 -9 -11 11 15 18 -10 -20
2 -20 -20 -10 -20 -5 25 27 29 30 26 27 27 26 26 17 2 6 13 7 6 16 11 13 14 23 13 -10 -20 -12 3 8 -15 15 3 -12 8 17 13 6 -10 -16 -20
10 3 -20 2 -1 -20 10 28 29 28 22 25 27 28 26 28 21 17 22 23 20 22 20 0 -9 -15 -19 -8 -8 -10 -20 -20 -19 -2 11 15 -14 -19 3 -17 -20 -17 -17
-13 -20 -14 -12 12 -16 3 24 16 28 26 28 11 26 28 31 25 17 14 10 11 5 1 -19 -18 -18 -17 -20 -20 -20 -20 -6 27 5 16 17 14 3 -8 -10 -6 7 11
-3 -20 -17 13 20 -19 5 7 19 18 25 28 32 24 12 16 11 20 2 -17 -18 -13 -19 -20 -20 -20 -20 -15 11 8 -2 2 13 25 21 19 21 28 21 18 11 26 8
11 12 10 -1 15 12 15 14 14 13 17 -7 19 2 10 16 12 10 13 16 21 25 1 -4 -2 -3 2 8 20 10 16 -20 1 -20 -20 -6 -20 -13 5 -12 14 19 6
-4 13 12 -0 11 1 15 12 17 15 -5 6 -8 21 1 2 26 5 -13 10 12 12 13 -9 -2 5 20 15 16 17 18 25 23 12 12 11 9 -5 9 1 15 -4 -3
7 18 12 13 7 14 19 20 17 -9 6 8 21 4 8 23 15 12 -17 7 0 -0 18 31 21 27 14 8 3 0 -12 -13 -20 -20 -20 -20 -20 -20 -20 -20 -3 -4 -10
-17 -19 -20 -20 -18 -5 12 19 20 16 16 7 -1 -11 -4 -20 -7 -14 -18 -0 16 13 20 1 -8 3 -15 -17 -20 -20 -20 -20 -20 -20 -20 -20 -20 -20 -20 -20 -20 -20 -20
21 21 26 23 22 14 28 26 24 10 4 -6 -3 1 16 11 14 1 -17 -20 -20 -20 -20 -20 -20 -19 -20 -20 -20 -20 -20 -20 -20 -20 -20 -20 -20 -20 -20 -20 -20 -20 -20

GFSMA_prec_radar_090.txt.gz
Reflectivity
-20 -20 -20 -20 -20 -20 -20 -20 -20 4 33 35 30 -20 -20 -20 -20 -20 -1 16 -20 -20 10 -12 -20 11 11 14 16 15 5 -13 -12 1 5 -19 9 2 -2 4 -1 -16 -20
-20 -20 -20 -20 -20 -20 -20 -20 -20 -13 5 33 30 3 -20 -20 -20 -10 -20 -20 -20 -20 -8 9 -16 7 10 13 15 17 15 3 14 3 7 -4 9 0 -10 -20 -20 -20 -20
-20 -20 -20 -20 -20 -20 -8 -20 -20 -20 -0 20 34 23 17 -20 -20 -20 -19 -20 -20 -20 -20 -18 -20 4 14 18 18 17 15 16 17 16 8 -20 -20 -3 -20 -20 -20 -20 -20
-20 -20 -20 -20 -20 -1 -16 -20 -20 -20 -5 -12 24 22 24 25 13 -20 -20 -20 -20 -20 -20 -20 -5 8 17 16 8 17 13 19 16 11 -1 -20 -20 -20 -20 -20 -20 -20 -20
-20 -20 -20 -20 -20 -20 -4 15 -15 -20 -20 -3 -20 13 30 17 -20 -20 -20 -20 -20 -20 -20 -20 6 -0 13 12 14 6 15 14 6 8 15 -4 -4 -20 -20 -20 -20 -20 -20
-20 -20 -15 -20 -20 -2 -13 -6 -14 14 -20 15 -20 19 37 6 -9 -9 -20 -20 -20 -20 -20 -20 -4 -14 -15 -13 8 17 17 17 -3 0 0 1 -2 -3 -20 -20 -20 -20 -20
-20 7 -20 -20 -20 -20 27 8 20 19 -20 15 -12 31 35 19 20 21 -20 -20 -20 -20 -20 -20 -20 -20 -10 16 -20 7 11 5 1 0 1 14 3 -0 -20 -20 -20 -20 -20
-10 5 -18 -20 -20 -10 16 8 13 -20 -20 8 17 28 32 21 22 13 -20 -20 -20 -20 -20 -20 -20 -20 -20 -20 -20 -20 -20 4 2 -1 -0 0 0 -20 -20 -20 -20 -18 -20
-20 -20 -7 0 14 22 19 19 -20 -20 -20 5 9 35 24 11 15 -6 -19 -20 -20 -20 -20 -20 -20 -20 -20 -20 -20 -20 -20 -20 0 -8 -11 -4 -20 -20 -20 -20 -20 -19 4
-20 6 -20 -20 -13 11 5 2 -14 -13 -16 -14 23 30 23 26 32 25 -15 -20 -3 -20 -20 -20 -20 -20 -20 -20 -20 -20 -20 -20 -20 -20 -6 -20 -20 -20 -20 -20 -20 -20 -20
-20 -20 -20 -1 -6 -20 -20 12 12 -20 -14 5 6 34 29 32 28 -8 -20 -20 -15 -20 -20 -20 -20 -20 -20 -20 -20 -20 -20 -20 -20 -20 -20 -19 -3 -19 -14 -20 -20 -20 -20
-20 -20 4 -11 -14 -9 -15 3 8 -13 14 31 11 18 26 25 23 21 5 16 9 -15 -16 -20 -20 -20 -20 -20 -20 -20 -20 -20 -20 -20 -20 -20 -9 -20 -11 -20 -20 -20 -20
-19 -13 8 -20 -20 2 17 -7 -11 4 16 28 25 15 19 26 27 20 31 15 -11 -20 -20 -20 -20 -20 -20 -20 -20 -20 -20 -20 -20 -20 -20 -20 -20 -20 -20 -20 -20 -20 -20
-12 -6 -16 12 -17 -20 -20 -1 18 17 30 26 15 22 30 27 21 -6 18 -15 -20 -19 0 -20 -18 -20 -20 -20 -20 -20 -20 -20 -20 -20 -20 -20 -20 -20 -20 -20 -20 -20 -20
7 -20 -20 -20 -20 -10 3 27 29 30 22 29 33 31 29 24 22 22 5 -20 -2 4 5 -13 -20 -20 -20 -20 5 -17 -5 10 -16 -20 -20 -20 -20 -20 -20 -20 -20 6 7
2 -17 -20 -20 -18 -19 -4 20 28 27 35 28 27 25 24 23 18 17 -7 -16 -17 -2 19 -5 -20 9 -18 -12 4 2 10 8 -19 -16 -18 -20 -15 5 13 21 18 18 16
-20 -20 -20 -20 -19 -1 -8 27 31 29 32 27 36 28 26 23 22 9 2 13 31 23 19 -16 -20 -20 -20 -7 18 9 21 7 16 28 27 25 21 24 20 -13 -20 -20 -16
-20 3 -20 -20 -19 -20 2 23 29 27 32 27 32 26 30 28 25 25 28 22 8 13 -5 -20 -20 -20 3 13 10 6 9 -19 -19 9 21 6 -1 2 -20 -20 -20 -19 -9
8 18 -13 -20 -20 -20 -3 20 29 32 26 28 28 28 31 28 29 29 26 27 24 -1 -7 -18 -18 -4 22 20 20 22 -20 -17 8 9 -20 -20 -20 -20 -2 19 -15 -16 -20
13 8 -10 -20 -20 -19 19 22 25 31 33 28 32 32 28 28 25 25 20 20 13 11 12 4 18 13 -8 29 -20 3 -7 8 -16 -20 -8 6 22 21 18 14 21 27 30
12 8 6 4 -16 -11 -15 -2 24 14 23 26 16 14 19 21 20 24 25 26 27 19 28 4 -16 -11 -18 3 -12 -16 -9 -18 -8 11 11 5 -10 20 9 10 5 -11 -20
13 14 16 16 19 -15 9 11 21 8 17 22 27 18 23 25 22 15 12 13 10 -20 -20 -19 -3 -12 4 -20 5 -20 -20 -20 -11 10 27 25 2 18 19 -2 26 11 5
3 12 11 16 14 12 13 3 11 6 12 6 23 3 18 4 20 -13 9 6 3 4 11 -12 -10 -5 12 15 9 0 9 15 19 16 18 18 18 5 6 -2 -3 7 6
7 20 17 14 9 18 17 17 10 -11 -6 0 -8 -20 -20 -16 9 -8 -14 5 -0 -8 -9 8 14 4 19 16 -9 4 -7 15 4 -12 -11 -20 -20 -20 -20 -20 -8 -13 -20
10 9 16 17 19 19 20 22 17 -6 4 -6 -11 -18 -10 -7 23 9 17 16 6 -2 15 7 13 19 4 14 10 -19 -20 -20 -20 -20 -20 -20 -20 -20 -20 -20 -20 -20 -20
22 23 1 24 28 24 24 26 24 4 6 10 20 22 19 10 22 12 -2 -12 4 15 2 -20 -20 -20 -20 -20 -20 -20 -20 -20 -20 -20 -20 -20 -20 -20 -20 -20 -20 -20 -20

GFSMA_prec_radar_093.txt.gz
Reflectivity
10 -20 -20 -20 -13 -20 -20 -20 -20 -20 -20 -20 20 37 37 30 29 12 -12 -20 29 -20 -11 2 -18 20 -17 16 16 13 14 -11 -20 -20 6 11 1 14 -0 -3 1 9 -2
2 8 -7 10 -3 -20 -20 -20 -20 -20 -20 -8 35 36 34 31 -20 -8 -12 -20 -20 6 -8 -20 -5 -14 10 14 16 16 13 12 9 15 11 -12 15 8 10 0 -4 -3 -20
-16 -20 1 2 8 -1 -20 -20 -20 -20 -20 -15 24 38 35 27 -20 -6 -20 -20 -20 -20 -20 -20 -20 -18 12 13 14 5 13 16 13 14 16 -0 14 15 -1 0 -20 -20 -1
-20 -20 -16 -20 -10 -20 -15 -20 -20 -20 -20 2 -3 37 33 26 20 17 16 13 -20 -20 -20 -20 -17 14 12 14 12 15 12 14 14 13 12 -0 -19 10 5 1 -4 -20 -20
-20 -20 -20 -14 -8 8 9 -8 -20 -20 -20 -20 3 21 19 28 32 25 16 -16 -20 -20 -20 -20 -20 -20 10 12 16 16 14 15 13 16 13 4 -2 11 5 -20 -20 -20 -20
-20 -20 -20 -20 -16 6 -7 7 -20 -20 -20 -20 -20 7 7 21 23 29 18 -20 -20 -20 -20 -20 -20 0 10 11 15 14 17 18 16 18 16 17 17 5 3 -1 -20 -20 -20
-20 -20 8 -20 -20 -20 -2 -2 -1 -20 -20 -4 17 9 -0 -2 14 28 28 -19 -20 -20 -20 -20 -20 -20 -1 -2 10 14 16 17 17 12 16 19 13 14 1 -1 -20 -20 -20
-20 -20 -20 -13 18 -20 -20 -7 6 19 -20 12 9 -2 -1 30 24 28 23 1 -19 -20 -20 -20 -20 -20 -20 -11 -0 2 12 17 17 17 -0 1 3 0 -4 -20 -20 -20 -20
-20 -20 -4 1 -17 3 5 0 13 19 -20 9 -3 -14 4 16 28 25 19 18 -2 -15 -20 -20 -20 -20 -20 -20 -20 -20 -20 -20 7 -2 -4 -3 -5 -20 -20 -20 -20 -20 -20
-20 2 0 8 6 -19 9 2 -2 6 21 -20 -20 -20 -2 25 26 22 28 29 -10 -20 -20 -20 -20 -20 -20 -20 -20 -20 -20 -20 -20 -20 -20 -20 -18 -20 -20 -20 -20 -20 -20
-20 -20 7 -3 18 -4 -7 15 15 0 13 15 -20 -20 2 9 29 32 33 33 15 2 -20 -20 -20 -20 -20 -20 -20 -20 -20 -20 -20 -20 -20 -0 4 4 -20 -20 -20 -20 -20
-20 -20 -13 -3 5 3 -15 -4 16 -2 8 -20 14 -20 -8 14 25 35 34 32 11 -14 -20 10 -20 -20 -19 -20 -20 -20 -20 -20 -20 -20 -20 -20 -20 -20 -20 -20 -20 -20 -20
-20 -8 -12 11 16 13 2 9 9 20 -8 -18 -20 -20 -15 26 35 37 32 30 8 -20 -6 8 -7 -20 -20 -20 -20 -20 -20 -20 -20 -20 -20 -20 -20 -20 -20 -20 -20 -20 -20
-20 -20 2 15 14 13 15 11 20 3 -11 2 -12 8 29 27 32 29 25 30 28 10 -3 -18 -19 -20 -20 -20 -20 -20 -20 -20 -20 -20 -20 -20 -20 -20 -20 -20 -20 -20 -20
-20 -20 11 8 8 7 11 18 21 -2 1 22 9 14 25 23 27 28 30 28 20 24 14 -7 -20 -8 -20 -20 -20 -20 -20 -20 -20 -20 -20 -20 -20 -20 -20 -20 -20 -20 -20
-20 -2 -20 -18 -19 3 9 6 -7 8 24 22 28 20 31 23 32 27 23 29 1 -3 20 -14 -1 -5 -18 -20 -20 -20 -11 -20 -13 5 -20 -20 -20 -20 -20 -20 -20 -20 -20
-20 -20 -20 -18 -17 -20 -20 -20 18 24 28 37 33 28 26 28 33 23 26 21 29 14 2 30 25 17 6 -20 -3 -19 -20 1 -6 13 -7 -20 -20 -20 -19 -15 5 17 13
-20 -20 -20 -20 -20 -20 -20 -20 16 28 30 23 24 20 30 28 23 24 23 27 31 2 26 25 24 19 -19 -20 -20 15 5 17 24 23 9 7 -19 -13 10 2 -16 -11 -20
-20 -20 -20 -20 -20 -5 -18 1 -1 32 34 29 27 31 28 28 25 23 20 26 24 29 29 25 17 21 21 16 -20 -20 -2 9 7 21 3 -20 6 1 -20 -20 -20 -18 21
-20 -20 -20 -13 -19 -18 12 -7 4 20 31 30 31 30 36 28 31 28 27 26 24 24 23 21 12 24 22 7 7 20 5 1 1 -3 -20 5 -13 -9 11 20 21 -3 1
-20 -20 -20 -20 -20 -11 2 -1 21 21 28 30 28 27 30 28 33 29 26 27 26 22 25 19 25 17 20 27 20 15 -1 -8 15 20 7 7 4 5 1 15 18 8 5
-20 -20 -20 -20 -15 -20 17 11 11 15 13 26 22 29 34 30 25 25 27 27 29 29 27 18 10 20 15 -15 -19 -14 -7 25 2 23 17 26 18 10 0 20 16 24 12
-20 -20 -20 -20 -20 5 12 -3 22 14 0 5 22 30 29 26 32 30 31 32 31 15 13 15 -3 -17 11 1 -20 -20 -20 -1 -14 -12 3 4 18 15 14 22 19 -20 0
12 -10 -20 -12 7 3 13 13 17 12 21 23 -18 2 16 18 22 24 30 11 3 4 -10 -4 -13 0 -19 -16 -6 11 27 21 20 18 27 3 5 8 -9 -20 -13 -20 -20
-14 -20 -20 -18 -13 12 10 11 24 -2 0 9 23 22 18 2 16 17 -6 -7 -5 -19 15 3 19 17 16 19 12 10 21 -11 7 19 -8 -20 -20 -20 -20 -20 -20 -20 -20
6 -0 -9 -19 15 -0 15 14 16 7 9 14 -4 0 18 16 22 10 -11 0 4 20 29 32 21 15 5 24 8 -20 -20 -20 -20 -20 -20 -20 -20 -20 -20 -20 -20 -20 -20

GFSMA_prec_radar_096.txt.gz
Reflectivity
-20 -19 -20 -20 -20 -20 -20 -20 -20 -20 -20 -16 -19 -20 -13 11 33 16 5 18 -20 4 10 9 6 -5 14 -18 -13 9 11 -4 -20 -20 -20 -4 13 15 11 8 16 -1 -12
9 18 -17 -18 -20 -20 -20 -20 -20 -20 -14 -18 -11 0 15 29 31 19 6 -20 -20 -3 28 23 6 -14 -20 -20 1 6 10 13 14 8 10 12 14 12 10 14 13 -1 -20
-11 -18 4 -0 -20 2 -15 -20 -20 -20 -20 -20 -20 14 26 39 33 15 7 -20 -20 -20 27 27 -19 -2 15 -16 -15 8 9 16 16 14 15 17 15 15 16 14 2 -4 4
-20 -19 -17 13 -19 6 -7 -20 -20 -20 -19 -20 -20 16 21 38 33 30 31 -20 -20 -20 -20 3 2 -8 5 -15 12 8 12 15 16 17 17 18 14 13 16 15 2 -0 -4
7 -20 -11 -19 -18 13 10 -20 -20 -20 -20 -7 -20 -9 11 38 36 32 21 31 -1 27 -20 -20 -20 -20 -8 -6 7 10 14 12 17 16 16 16 14 14 15 16 4 -13 -20
-2 -20 -17 -20 10 12 13 -20 -20 -20 -20 -18 -14 -9 5 34 36 33 27 26 26 6 -20 -20 -20 -20 -20 9 8 -2 13 13 14 14 15 11 13 9 10 1 -17 -20 -15
-17 -20 -20 -17 6 -5 11 7 8 -20 8 1 -1 -5 9 1 22 28 33 17 23 5 -20 -20 -20 -20 -20 -19 -14 -7 10 13 7 16 13 13 13 6 9 5 -7 -20 -20
-20 -20 -20 -20 -6 13 6 3 -4 -2 8 3 -16 -19 -2 15 13 -5 1 26 18 -0 -20 -20 -20 -20 -20 -20 -8 12 12 -1 7 13 12 8 8 10 11 5 -20 -19 -20
-18 -8 -19 -14 10 1 2 -9 -20 2 4 15 -19 -11 -11 -3 8 14 12 31 28 8 -20 -20 -20 -20 -20 -20 -13 -15 -11 11 14 12 11 14 13 8 -20 -9 -12 -20 -20
34 2 -8 7 7 -20 -0 -20 3 19 20 19 19 -15 -20 -20 -13 -18 15 21 28 18 -20 -20 -20 -20 -20 -20 -20 -20 -20 -20 -14 8 10 4 -0 2 1 -20 -20 -20 -20
7 -0 -6 9 6 -20 -10 -2 -9 14 18 28 23 -14 -20 11 -20 -20 -10 32 28 26 26 5 -20 -20 -20 -20 -20 -20 -20 -20 -20 -20 -20 4 6 10 3 -19 -20 -20 -20
-14 4 7 7 -12 -17 13 -14 -15 19 19 21 22 21 -20 -20 -20 -20 -17 26 28 28 32 4 -15 -20 -20 -20 -20 -20 -20 -20 -20 -20 -20 -20 -6 2 5 -7 -20 -20 -20
-20 0 -9 -14 5 -6 -3 -8 -9 -6 15 22 19 6 -7 -4 -20 -20 -11 29 36 31 30 -4 -8 -19 3 -2 -20 -20 -20 -20 -20 -20 -20 -20 -20 -20 -20 -12 -20 -20 -20
-20 -19 -20 -1 -3 -20 -13 -20 -1 -4 7 12 8 5 22 -8 -20 -20 1 31 29 26 21 5 11 6 8 7 -20 -20 -20 -20 -20 -20 -20 -20 -20 -20 -20 -20 -20 -20 -20
-20 -20 6 4 -18 -20 -14 -20 -2 7 16 -6 -0 22 5 -5 -20 -19 25 23 21 30 29 24 25 12 7 6 -20 -20 -20 -18 -20 -20 -20 -20 -20 -20 -20 -20 -20 -20 -20
-20 -20 -20 1 -9 -5 16 8 11 15 5 13 9 3 9 13 -14 13 25 25 23 28 28 6 8 -1 -20 -20 -20 -20 -16 -12 -20 -20 -20 -20 -20 -20 -20 -20 -20 -20 -20
-20 -20 -16 1 15 13 -6 1 9 14 11 12 12 15 24 17 23 -3 30 27 25 25 20 10 6 -7 5 4 -3 -20 2 -20 -19 -3 -20 -20 -20 -20 -20 -20 -20 -20 -20
-20 -20 8 12 -0 -20 -19 -20 -20 -20 -4 -19 24 19 26 30 11 22 35 33 27 23 -18 18 11 7 13 -14 10 23 14 -20 -20 9 15 14 6 2 -16 -20 -20 -20 -20
-20 -20 -20 -20 -15 -20 -20 3 -20 -20 -20 8 29 23 32 23 12 30 22 30 23 19 21 27 29 21 -1 -6 13 10 1 14 17 22 -6 -14 11 18 15 10 -1 19 -15
-20 -20 -5 11 8 -17 -20 -20 -20 -17 -2 13 25 22 22 28 23 29 18 25 27 24 25 27 27 24 25 27 24 26 20 -2 -9 -20 13 -13 15 24 -5 -13 -8 -20 -10
-15 -14 -17 -16 -20 -20 -20 -20 -20 0 -8 10 19 23 21 32 30 31 28 30 25 24 28 26 25 27 25 27 27 29 27 10 -2 18 13 -19 -13 -18 -20 7 8 9 14
12 -20 -20 -20 -20 -20 3 -9 -20 13 25 19 22 28 29 27 35 33 32 35 27 22 21 21 28 26 23 24 28 30 27 25 22 17 12 -3 -10 6 7 2 13 -9 7
13 -13 -15 -20 -20 -20 -19 2 7 -20 -3 20 3 16 23 31 35 32 32 32 30 30 28 28 25 24 22 24 21 22 17 20 -12 -20 -20 -0 -11 6 10 24 25 19 7
8 1 10 -20 -20 -20 -20 5 7 6 5 18 11 10 23 24 34 30 30 34 32 29 29 30 20 27 26 1 -5 26 -2 10 11 19 25 22 15 19 18 21 23 -1 -13
3 -4 -20 -20 -20 -20 -10 -3 11 7 0 22 20 27 -12 4 34 19 20 22 24 28 29 24 26 21 11 12 9 1 2 21 25 23 25 23 -4 5 12 -9 -20 -20 -20
28 20 8 -3 15 -20 7 -4 7 -14 14 13 -3 27 25 26 33 22 9 23 14 26 29 11 25 6 13 16 28 18 16 10 6 16 -17 -20 -20 -20 -20 -20 -20 -20 -20